Time,TemperatureF,DewpointF,PressureIn,WindDirection,WindDirectionDegrees,WindSpeedMPH,WindSpeedGustMPH,Humidity,HourlyPrecipIn,Conditions,Clouds,dailyrainin,SolarRadiationWatts/m^2,SoftwareType,DateUTC
2013-10-03 00:01:00,59.3,55.7,30.06,WNW,291,0.0,0.0,88,0.00,,,0.00,0,WeatherCatV1.20B785,2013-10-03 04:01:00,
2013-10-03 00:06:00,59.2,55.6,30.06,WNW,291,0.0,1.0,88,0.00,,,0.00,0,WeatherCatV1.20B785,2013-10-03 04:06:00,
2013-10-03 00:08:00,59.1,55.5,30.06,WNW,291,0.0,2.0,88,0.00,,,0.00,0,WeatherCatV1.20B785,2013-10-03 04:08:00,
2013-10-03 00:11:00,59.1,55.5,30.06,WNW,291,0.0,0.0,88,0.00,,,0.00,0,WeatherCatV1.20B785,2013-10-03 04:11:00,
2013-10-03 00:13:00,59.0,55.5,30.06,WNW,291,0.0,1.0,88,0.00,,,0.00,0,WeatherCatV1.20B785,2013-10-03 04:13:00,
2013-10-03 00:14:00,59.0,55.5,30.06,WNW,291,0.0,0.0,88,0.00,,,0.00,0,WeatherCatV1.20B785,2013-10-03 04:14:00,
2013-10-03 00:16:00,59.0,55.5,30.06,WNW,291,0.0,0.0,88,0.00,,,0.00,0,WeatherCatV1.20B785,2013-10-03 04:16:00,
2013-10-03 00:17:00,59.0,55.5,30.06,WNW,291,0.0,0.0,88,0.00,,,0.00,0,WeatherCatV1.20B785,2013-10-03 04:17:00,
2013-10-03 00:18:00,58.9,55.3,30.06,WNW,291,0.0,0.0,88,0.00,,,0.00,0,WeatherCatV1.20B785,2013-10-03 04:18:00,
2013-10-03 00:20:00,58.9,55.3,30.06,WNW,291,0.0,0.0,88,0.00,,,0.00,0,WeatherCatV1.20B785,2013-10-03 04:20:00,
2013-10-03 00:21:00,58.9,55.3,30.06,WNW,291,0.0,0.0,88,0.00,,,0.00,0,WeatherCatV1.20B785,2013-10-03 04:21:00,
2013-10-03 00:22:00,58.9,55.3,30.06,WNW,291,0.0,0.0,88,0.00,,,0.00,0,WeatherCatV1.20B785,2013-10-03 04:22:00,
2013-10-03 00:24:00,58.9,55.3,30.06,WNW,291,0.0,0.0,88,0.00,,,0.00,0,WeatherCatV1.20B785,2013-10-03 04:24:00,
2013-10-03 00:25:00,58.9,55.3,30.06,WNW,291,0.0,1.0,88,0.00,,,0.00,0,WeatherCatV1.20B785,2013-10-03 04:25:00,
2013-10-03 00:27:00,58.9,55.3,30.06,WNW,291,0.0,1.0,88,0.00,,,0.00,0,WeatherCatV1.20B785,2013-10-03 04:27:00,
2013-10-03 00:30:00,58.9,55.3,30.06,WNW,291,0.0,0.0,88,0.00,,,0.00,0,WeatherCatV1.20B785,2013-10-03 04:30:00,
2013-10-03 00:32:00,58.8,55.2,30.06,WNW,291,0.0,0.0,88,0.00,,,0.00,0,WeatherCatV1.20B785,2013-10-03 04:32:00,
2013-10-03 00:33:00,58.8,55.2,30.06,WNW,291,0.0,0.0,88,0.00,,,0.00,0,WeatherCatV1.20B785,2013-10-03 04:33:00,
2013-10-03 00:35:00,58.8,55.2,30.06,WNW,291,0.0,0.0,88,0.00,,,0.00,0,WeatherCatV1.20B785,2013-10-03 04:35:00,
2013-10-03 00:37:00,58.7,55.2,30.06,WNW,291,0.0,0.0,88,0.00,,,0.00,0,WeatherCatV1.20B785,2013-10-03 04:37:00,
2013-10-03 00:40:00,58.7,55.2,30.06,WNW,291,0.0,0.0,88,0.00,,,0.00,0,WeatherCatV1.20B785,2013-10-03 04:40:00,
2013-10-03 00:41:00,58.6,55.0,30.06,WNW,291,0.0,0.0,88,0.00,,,0.00,0,WeatherCatV1.20B785,2013-10-03 04:41:00,
2013-10-03 00:42:00,58.6,55.0,30.06,WNW,291,0.0,0.0,88,0.00,,,0.00,0,WeatherCatV1.20B785,2013-10-03 04:42:00,
2013-10-03 00:43:00,58.6,55.0,30.06,WNW,291,0.0,0.0,88,0.00,,,0.00,0,WeatherCatV1.20B785,2013-10-03 04:43:00,
2013-10-03 00:45:00,58.6,55.0,30.06,WNW,291,0.0,0.0,88,0.00,,,0.00,0,WeatherCatV1.20B785,2013-10-03 04:45:00,
2013-10-03 00:47:00,58.5,55.0,30.06,WNW,291,0.0,0.0,88,0.00,,,0.00,0,WeatherCatV1.20B785,2013-10-03 04:47:00,
2013-10-03 00:48:00,58.5,55.0,30.06,WNW,291,0.0,0.0,88,0.00,,,0.00,0,WeatherCatV1.20B785,2013-10-03 04:48:00,
2013-10-03 00:51:00,58.4,54.9,30.06,WNW,291,0.0,0.0,88,0.00,,,0.00,0,WeatherCatV1.20B785,2013-10-03 04:51:00,
2013-10-03 00:52:00,58.4,54.9,30.06,WNW,291,0.0,0.0,88,0.00,,,0.00,0,WeatherCatV1.20B785,2013-10-03 04:52:00,
2013-10-03 00:53:00,58.4,54.9,30.06,WNW,291,0.0,0.0,88,0.00,,,0.00,0,WeatherCatV1.20B785,2013-10-03 04:53:00,
2013-10-03 00:56:00,58.3,54.8,30.06,WNW,291,0.0,0.0,88,0.00,,,0.00,0,WeatherCatV1.20B785,2013-10-03 04:56:00,
2013-10-03 00:57:00,58.3,54.8,30.06,WNW,291,0.0,0.0,88,0.00,,,0.00,0,WeatherCatV1.20B785,2013-10-03 04:57:00,
2013-10-03 00:58:00,58.3,54.8,30.06,WNW,291,0.0,0.0,88,0.00,,,0.00,0,WeatherCatV1.20B785,2013-10-03 04:58:00,
2013-10-03 01:01:00,58.3,54.8,30.07,WNW,291,0.0,0.0,88,0.00,,,0.00,0,WeatherCatV1.20B785,2013-10-03 05:01:00,
2013-10-03 01:02:00,58.3,54.8,30.07,WNW,291,0.0,0.0,88,0.00,,,0.00,0,WeatherCatV1.20B785,2013-10-03 05:02:00,
2013-10-03 01:03:00,58.3,54.8,30.06,WNW,291,0.0,0.0,88,0.00,,,0.00,0,WeatherCatV1.20B785,2013-10-03 05:03:00,
2013-10-03 01:04:00,58.2,54.7,30.06,WNW,291,0.0,0.0,88,0.00,,,0.00,0,WeatherCatV1.20B785,2013-10-03 05:04:00,
2013-10-03 01:07:00,58.3,54.8,30.07,WNW,291,0.0,0.0,88,0.00,,,0.00,0,WeatherCatV1.20B785,2013-10-03 05:07:00,
2013-10-03 01:08:00,58.2,54.7,30.07,WNW,291,0.0,0.0,88,0.00,,,0.00,0,WeatherCatV1.20B785,2013-10-03 05:08:00,
2013-10-03 01:09:00,58.2,54.7,30.07,WNW,291,0.0,0.0,88,0.00,,,0.00,0,WeatherCatV1.20B785,2013-10-03 05:09:00,
2013-10-03 01:13:00,58.2,54.7,30.07,WNW,291,0.0,0.0,88,0.00,,,0.00,0,WeatherCatV1.20B785,2013-10-03 05:13:00,
2013-10-03 01:14:00,58.2,54.7,30.07,WNW,291,0.0,0.0,88,0.00,,,0.00,0,WeatherCatV1.20B785,2013-10-03 05:14:00,
2013-10-03 01:15:00,58.2,54.7,30.07,WNW,291,0.0,0.0,88,0.00,,,0.00,0,WeatherCatV1.20B785,2013-10-03 05:15:00,
2013-10-03 01:19:00,58.2,54.7,30.07,WNW,291,0.0,0.0,88,0.00,,,0.00,0,WeatherCatV1.20B785,2013-10-03 05:19:00,
2013-10-03 01:20:00,58.2,54.7,30.07,WNW,291,0.0,0.0,88,0.00,,,0.00,0,WeatherCatV1.20B785,2013-10-03 05:20:00,
2013-10-03 01:21:00,58.2,54.7,30.07,WNW,291,0.0,0.0,88,0.00,,,0.00,0,WeatherCatV1.20B785,2013-10-03 05:21:00,
2013-10-03 01:24:00,58.4,54.5,30.07,WNW,291,0.0,0.0,87,0.00,,,0.00,0,WeatherCatV1.20B785,2013-10-03 05:24:00,
2013-10-03 01:25:00,58.4,54.5,30.07,WNW,291,0.0,0.0,87,0.00,,,0.00,0,WeatherCatV1.20B785,2013-10-03 05:25:00,
2013-10-03 01:27:00,58.4,54.5,30.07,WNW,291,0.0,0.0,87,0.00,,,0.00,0,WeatherCatV1.20B785,2013-10-03 05:27:00,
2013-10-03 01:29:00,58.4,54.5,30.07,WNW,291,0.0,0.0,87,0.00,,,0.00,0,WeatherCatV1.20B785,2013-10-03 05:29:00,
2013-10-03 01:30:00,58.5,54.6,30.07,WNW,291,0.0,0.0,87,0.00,,,0.00,0,WeatherCatV1.20B785,2013-10-03 05:30:00,
2013-10-03 01:31:00,58.4,54.5,30.07,WNW,291,0.0,0.0,87,0.00,,,0.00,0,WeatherCatV1.20B785,2013-10-03 05:31:00,
2013-10-03 01:33:00,58.4,54.9,30.07,WNW,291,0.0,0.0,88,0.00,,,0.00,0,WeatherCatV1.20B785,2013-10-03 05:33:00,
2013-10-03 01:35:00,58.4,54.9,30.07,WNW,291,0.0,0.0,88,0.00,,,0.00,0,WeatherCatV1.20B785,2013-10-03 05:35:00,
2013-10-03 01:36:00,58.4,54.9,30.07,WNW,291,0.0,0.0,88,0.00,,,0.00,0,WeatherCatV1.20B785,2013-10-03 05:36:00,
2013-10-03 01:39:00,58.4,54.9,30.08,WNW,291,0.0,0.0,88,0.00,,,0.00,0,WeatherCatV1.20B785,2013-10-03 05:39:00,
2013-10-03 01:40:00,58.4,54.9,30.08,WNW,291,0.0,0.0,88,0.00,,,0.00,0,WeatherCatV1.20B785,2013-10-03 05:40:00,
2013-10-03 01:41:00,58.4,54.9,30.08,WNW,291,0.0,0.0,88,0.00,,,0.00,0,WeatherCatV1.20B785,2013-10-03 05:41:00,
2013-10-03 01:45:00,58.4,54.5,30.07,WNW,291,0.0,1.0,87,0.00,,,0.00,0,WeatherCatV1.20B785,2013-10-03 05:45:00,
2013-10-03 01:46:00,58.4,54.5,30.08,WNW,291,0.0,1.0,87,0.00,,,0.00,0,WeatherCatV1.20B785,2013-10-03 05:46:00,
2013-10-03 01:47:00,58.5,54.6,30.08,WNW,291,0.0,0.0,87,0.00,,,0.00,0,WeatherCatV1.20B785,2013-10-03 05:47:00,
2013-10-03 01:50:00,58.6,54.7,30.08,WNW,291,0.0,0.0,87,0.00,,,0.00,0,WeatherCatV1.20B785,2013-10-03 05:50:00,
2013-10-03 01:51:00,58.6,54.7,30.07,WNW,291,0.0,0.0,87,0.00,,,0.00,0,WeatherCatV1.20B785,2013-10-03 05:51:00,
2013-10-03 01:52:00,58.6,54.7,30.07,WNW,291,0.0,0.0,87,0.00,,,0.00,0,WeatherCatV1.20B785,2013-10-03 05:52:00,
2013-10-03 01:53:00,58.6,54.7,30.07,WNW,291,0.0,0.0,87,0.00,,,0.00,0,WeatherCatV1.20B785,2013-10-03 05:53:00,
2013-10-03 01:55:00,58.7,54.8,30.07,WNW,291,0.0,0.0,87,0.00,,,0.00,0,WeatherCatV1.20B785,2013-10-03 05:55:00,
2013-10-03 01:56:00,58.7,54.8,30.07,WNW,291,0.0,0.0,87,0.00,,,0.00,0,WeatherCatV1.20B785,2013-10-03 05:56:00,
2013-10-03 01:57:00,58.7,54.8,30.07,WNW,291,0.0,0.0,87,0.00,,,0.00,0,WeatherCatV1.20B785,2013-10-03 05:57:00,
2013-10-03 01:58:00,58.7,55.2,30.07,WNW,291,0.0,0.0,88,0.00,,,0.00,0,WeatherCatV1.20B785,2013-10-03 05:58:00,
2013-10-03 02:01:00,58.7,55.2,30.07,WNW,291,1.0,1.0,88,0.00,,,0.00,0,WeatherCatV1.20B785,2013-10-03 06:01:00,
2013-10-03 02:02:00,58.7,55.2,30.07,WNW,291,1.0,1.0,88,0.00,,,0.00,0,WeatherCatV1.20B785,2013-10-03 06:02:00,
2013-10-03 02:04:00,58.7,55.2,30.07,WNW,291,0.0,1.0,88,0.00,,,0.00,0,WeatherCatV1.20B785,2013-10-03 06:04:00,
2013-10-03 02:06:00,58.6,55.0,30.07,WNW,291,0.0,0.0,88,0.00,,,0.00,0,WeatherCatV1.20B785,2013-10-03 06:06:00,
2013-10-03 02:07:00,58.6,55.0,30.07,WNW,291,0.0,0.0,88,0.00,,,0.00,0,WeatherCatV1.20B785,2013-10-03 06:07:00,
2013-10-03 02:09:00,58.5,55.0,30.07,WNW,291,0.0,0.0,88,0.00,,,0.00,0,WeatherCatV1.20B785,2013-10-03 06:09:00,
2013-10-03 02:12:00,58.4,54.9,30.07,WNW,291,1.0,1.0,88,0.00,,,0.00,0,WeatherCatV1.20B785,2013-10-03 06:12:00,
2013-10-03 02:13:00,58.5,55.0,30.07,WNW,291,0.0,1.0,88,0.00,,,0.00,0,WeatherCatV1.20B785,2013-10-03 06:13:00,
2013-10-03 02:14:00,58.4,54.9,30.07,WNW,291,0.0,0.0,88,0.00,,,0.00,0,WeatherCatV1.20B785,2013-10-03 06:14:00,
2013-10-03 02:17:00,58.4,54.9,30.07,WNW,291,0.0,0.0,88,0.00,,,0.00,0,WeatherCatV1.20B785,2013-10-03 06:17:00,
2013-10-03 02:18:00,58.4,54.9,30.07,WNW,291,0.0,0.0,88,0.00,,,0.00,0,WeatherCatV1.20B785,2013-10-03 06:18:00,
2013-10-03 02:19:00,58.4,54.9,30.07,WNW,291,0.0,0.0,88,0.00,,,0.00,0,WeatherCatV1.20B785,2013-10-03 06:19:00,
2013-10-03 02:20:00,58.4,54.9,30.07,WNW,291,0.0,0.0,88,0.00,,,0.00,0,WeatherCatV1.20B785,2013-10-03 06:20:00,
2013-10-03 02:22:00,58.3,54.8,30.07,WNW,291,0.0,0.0,88,0.00,,,0.00,0,WeatherCatV1.20B785,2013-10-03 06:22:00,
2013-10-03 02:23:00,58.3,54.8,30.07,WNW,291,0.0,0.0,88,0.00,,,0.00,0,WeatherCatV1.20B785,2013-10-03 06:23:00,
2013-10-03 02:25:00,58.3,54.8,30.07,WNW,291,0.0,0.0,88,0.00,,,0.00,0,WeatherCatV1.20B785,2013-10-03 06:25:00,
2013-10-03 02:28:00,58.2,54.7,30.07,WNW,291,0.0,0.0,88,0.00,,,0.00,0,WeatherCatV1.20B785,2013-10-03 06:28:00,
2013-10-03 02:31:00,58.2,54.7,30.07,WNW,291,0.0,0.0,88,0.00,,,0.00,0,WeatherCatV1.20B785,2013-10-03 06:31:00,
2013-10-03 02:33:00,58.2,54.7,30.07,WNW,291,0.0,0.0,88,0.00,,,0.00,0,WeatherCatV1.20B785,2013-10-03 06:33:00,
2013-10-03 02:36:00,58.1,54.6,30.07,WNW,291,0.0,0.0,88,0.00,,,0.00,0,WeatherCatV1.20B785,2013-10-03 06:36:00,
2013-10-03 02:38:00,58.2,54.3,30.07,WNW,291,0.0,0.0,87,0.00,,,0.00,0,WeatherCatV1.20B785,2013-10-03 06:38:00,
2013-10-03 02:42:00,58.2,54.7,30.07,WNW,291,0.0,0.0,88,0.00,,,0.00,0,WeatherCatV1.20B785,2013-10-03 06:42:00,
2013-10-03 02:43:00,58.1,54.6,30.07,WNW,291,0.0,0.0,88,0.00,,,0.00,0,WeatherCatV1.20B785,2013-10-03 06:43:00,
2013-10-03 02:44:00,58.1,54.6,30.07,WNW,291,0.0,0.0,88,0.00,,,0.00,0,WeatherCatV1.20B785,2013-10-03 06:44:00,
2013-10-03 02:47:00,58.0,54.5,30.06,WNW,291,0.0,0.0,88,0.00,,,0.00,0,WeatherCatV1.20B785,2013-10-03 06:47:00,
2013-10-03 02:48:00,58.0,54.5,30.06,WNW,291,0.0,0.0,88,0.00,,,0.00,0,WeatherCatV1.20B785,2013-10-03 06:48:00,
2013-10-03 02:49:00,58.0,54.5,30.06,WNW,291,0.0,0.0,88,0.00,,,0.00,0,WeatherCatV1.20B785,2013-10-03 06:49:00,
2013-10-03 02:52:00,58.0,54.2,30.07,WNW,291,0.0,0.0,87,0.00,,,0.00,0,WeatherCatV1.20B785,2013-10-03 06:52:00,
2013-10-03 02:53:00,58.1,54.2,30.07,WNW,291,0.0,0.0,87,0.00,,,0.00,0,WeatherCatV1.20B785,2013-10-03 06:53:00,
2013-10-03 02:54:00,58.1,54.2,30.07,WNW,291,0.0,0.0,87,0.00,,,0.00,0,WeatherCatV1.20B785,2013-10-03 06:54:00,
2013-10-03 02:55:00,58.1,53.9,30.07,WNW,291,0.0,0.0,86,0.00,,,0.00,0,WeatherCatV1.20B785,2013-10-03 06:55:00,
2013-10-03 02:56:00,58.2,54.0,30.07,WNW,285,0.0,0.0,86,0.00,,,0.00,0,WeatherCatV1.20B785,2013-10-03 06:56:00,
2013-10-03 02:58:00,58.3,54.4,30.07,WNW,285,0.0,0.0,87,0.00,,,0.00,0,WeatherCatV1.20B785,2013-10-03 06:58:00,
2013-10-03 03:01:00,58.2,54.7,30.07,WNW,285,0.0,0.0,88,0.00,,,0.00,0,WeatherCatV1.20B785,2013-10-03 07:01:00,
2013-10-03 03:02:00,58.1,54.6,30.07,WNW,285,0.0,0.0,88,0.00,,,0.00,0,WeatherCatV1.20B785,2013-10-03 07:02:00,
2013-10-03 03:03:00,58.0,54.5,30.07,WNW,285,0.0,0.0,88,0.00,,,0.00,0,WeatherCatV1.20B785,2013-10-03 07:03:00,
2013-10-03 03:06:00,57.9,54.4,30.07,WNW,285,0.0,0.0,88,0.00,,,0.00,0,WeatherCatV1.20B785,2013-10-03 07:06:00,
2013-10-03 03:07:00,58.0,54.2,30.07,WNW,285,0.0,0.0,87,0.00,,,0.00,0,WeatherCatV1.20B785,2013-10-03 07:07:00,
2013-10-03 03:08:00,58.1,54.2,30.07,WNW,285,0.0,0.0,87,0.00,,,0.00,0,WeatherCatV1.20B785,2013-10-03 07:08:00,
2013-10-03 03:09:00,58.1,54.2,30.07,WNW,285,0.0,0.0,87,0.00,,,0.00,0,WeatherCatV1.20B785,2013-10-03 07:09:00,
2013-10-03 03:11:00,58.2,54.3,30.07,WNW,285,0.0,0.0,87,0.00,,,0.00,0,WeatherCatV1.20B785,2013-10-03 07:11:00,
2013-10-03 03:12:00,58.2,54.3,30.07,WNW,285,0.0,0.0,87,0.00,,,0.00,0,WeatherCatV1.20B785,2013-10-03 07:12:00,
2013-10-03 03:13:00,58.3,54.4,30.07,WNW,285,0.0,0.0,87,0.00,,,0.00,0,WeatherCatV1.20B785,2013-10-03 07:13:00,
2013-10-03 03:14:00,58.3,54.4,30.07,WNW,285,0.0,0.0,87,0.00,,,0.00,0,WeatherCatV1.20B785,2013-10-03 07:14:00,
2013-10-03 03:16:00,58.2,54.3,30.07,WNW,285,0.0,0.0,87,0.00,,,0.00,0,WeatherCatV1.20B785,2013-10-03 07:16:00,
2013-10-03 03:17:00,58.2,54.3,30.07,WNW,285,0.0,0.0,87,0.00,,,0.00,0,WeatherCatV1.20B785,2013-10-03 07:17:00,
2013-10-03 03:19:00,58.3,54.4,30.07,WNW,285,0.0,0.0,87,0.00,,,0.00,0,WeatherCatV1.20B785,2013-10-03 07:19:00,
2013-10-03 03:21:00,58.4,54.5,30.06,WNW,285,0.0,0.0,87,0.00,,,0.00,0,WeatherCatV1.20B785,2013-10-03 07:21:00,
2013-10-03 03:22:00,58.4,54.5,30.07,WNW,285,0.0,0.0,87,0.00,,,0.00,0,WeatherCatV1.20B785,2013-10-03 07:22:00,
2013-10-03 03:23:00,58.4,54.5,30.07,WNW,285,0.0,0.0,87,0.00,,,0.00,0,WeatherCatV1.20B785,2013-10-03 07:23:00,
2013-10-03 03:25:00,58.4,54.5,30.07,WNW,285,0.0,0.0,87,0.00,,,0.00,0,WeatherCatV1.20B785,2013-10-03 07:25:00,
2013-10-03 03:27:00,58.3,54.4,30.06,WNW,285,0.0,0.0,87,0.00,,,0.00,0,WeatherCatV1.20B785,2013-10-03 07:27:00,
2013-10-03 03:28:00,58.3,54.8,30.06,WNW,285,0.0,0.0,88,0.00,,,0.00,0,WeatherCatV1.20B785,2013-10-03 07:28:00,
2013-10-03 03:30:00,58.3,54.4,30.07,NNW,331,0.0,1.0,87,0.00,,,0.00,0,WeatherCatV1.20B785,2013-10-03 07:30:00,
2013-10-03 03:32:00,58.1,54.6,30.07,NNW,331,0.0,1.0,88,0.00,,,0.00,0,WeatherCatV1.20B785,2013-10-03 07:32:00,
2013-10-03 03:33:00,58.0,54.5,30.07,NNW,331,0.0,0.0,88,0.00,,,0.00,0,WeatherCatV1.20B785,2013-10-03 07:33:00,
2013-10-03 03:34:00,58.0,54.5,30.07,NNW,331,0.0,0.0,88,0.00,,,0.00,0,WeatherCatV1.20B785,2013-10-03 07:34:00,
2013-10-03 03:35:00,57.9,54.4,30.07,NNW,331,0.0,0.0,88,0.00,,,0.00,0,WeatherCatV1.20B785,2013-10-03 07:35:00,
2013-10-03 03:37:00,57.8,54.3,30.07,NNW,331,0.0,0.0,88,0.00,,,0.00,0,WeatherCatV1.20B785,2013-10-03 07:37:00,
2013-10-03 03:38:00,57.8,54.3,30.07,NNW,331,0.0,0.0,88,0.00,,,0.00,0,WeatherCatV1.20B785,2013-10-03 07:38:00,
2013-10-03 03:39:00,57.8,54.3,30.06,NNW,331,0.0,0.0,88,0.00,,,0.00,0,WeatherCatV1.20B785,2013-10-03 07:39:00,
2013-10-03 03:40:00,57.8,54.3,30.06,NNW,331,0.0,0.0,88,0.00,,,0.00,0,WeatherCatV1.20B785,2013-10-03 07:40:00,
2013-10-03 03:42:00,57.8,54.3,30.06,NNW,331,0.0,0.0,88,0.00,,,0.00,0,WeatherCatV1.20B785,2013-10-03 07:42:00,
2013-10-03 03:43:00,57.8,54.3,30.06,NNW,331,0.0,0.0,88,0.00,,,0.00,0,WeatherCatV1.20B785,2013-10-03 07:43:00,
2013-10-03 03:44:00,57.8,54.3,30.06,NNW,331,0.0,0.0,88,0.00,,,0.00,0,WeatherCatV1.20B785,2013-10-03 07:44:00,
2013-10-03 03:46:00,57.7,54.2,30.07,NNW,331,0.0,0.0,88,0.00,,,0.00,0,WeatherCatV1.20B785,2013-10-03 07:46:00,
2013-10-03 03:48:00,57.6,54.1,30.07,NNW,331,0.0,0.0,88,0.00,,,0.00,0,WeatherCatV1.20B785,2013-10-03 07:48:00,
2013-10-03 03:49:00,57.6,54.1,30.07,NNW,331,0.0,0.0,88,0.00,,,0.00,0,WeatherCatV1.20B785,2013-10-03 07:49:00,
2013-10-03 03:51:00,57.5,54.0,30.07,NNW,331,0.0,0.0,88,0.00,,,0.00,0,WeatherCatV1.20B785,2013-10-03 07:51:00,
2013-10-03 03:52:00,57.5,54.0,30.07,NNW,331,0.0,0.0,88,0.00,,,0.00,0,WeatherCatV1.20B785,2013-10-03 07:52:00,
2013-10-03 03:53:00,57.5,54.0,30.07,NNW,331,0.0,0.0,88,0.00,,,0.00,0,WeatherCatV1.20B785,2013-10-03 07:53:00,
2013-10-03 03:54:00,57.5,53.7,30.07,NNW,331,0.0,0.0,87,0.00,,,0.00,0,WeatherCatV1.20B785,2013-10-03 07:54:00,
2013-10-03 03:57:00,57.5,53.7,30.07,NNW,331,0.0,0.0,87,0.00,,,0.00,0,WeatherCatV1.20B785,2013-10-03 07:57:00,
2013-10-03 04:00:00,57.5,53.7,30.07,NNW,331,0.0,0.0,87,0.00,,,0.00,0,WeatherCatV1.20B785,2013-10-03 08:00:00,
2013-10-03 04:01:00,57.5,53.7,30.07,NNW,331,0.0,0.0,87,0.00,,,0.00,0,WeatherCatV1.20B785,2013-10-03 08:01:00,
2013-10-03 04:02:00,57.4,53.6,30.07,NNW,331,0.0,0.0,87,0.00,,,0.00,0,WeatherCatV1.20B785,2013-10-03 08:02:00,
2013-10-03 04:03:00,57.5,53.7,30.07,NNW,331,0.0,0.0,87,0.00,,,0.00,0,WeatherCatV1.20B785,2013-10-03 08:03:00,
2013-10-03 04:05:00,57.4,53.6,30.07,NNW,331,0.0,0.0,87,0.00,,,0.00,0,WeatherCatV1.20B785,2013-10-03 08:05:00,
2013-10-03 04:06:00,57.3,53.5,30.07,NNW,331,0.0,0.0,87,0.00,,,0.00,0,WeatherCatV1.20B785,2013-10-03 08:06:00,
2013-10-03 04:08:00,57.3,53.5,30.07,NNW,331,0.0,0.0,87,0.00,,,0.00,0,WeatherCatV1.20B785,2013-10-03 08:08:00,
2013-10-03 04:09:00,57.3,53.5,30.07,NNW,331,0.0,0.0,87,0.00,,,0.00,0,WeatherCatV1.20B785,2013-10-03 08:09:00,
2013-10-03 04:10:00,57.4,53.6,30.07,NNW,331,0.0,0.0,87,0.00,,,0.00,0,WeatherCatV1.20B785,2013-10-03 08:10:00,
2013-10-03 04:11:00,57.3,53.5,30.07,NNW,331,0.0,0.0,87,0.00,,,0.00,0,WeatherCatV1.20B785,2013-10-03 08:11:00,
2013-10-03 04:12:00,57.4,53.6,30.07,NNW,331,0.0,0.0,87,0.00,,,0.00,0,WeatherCatV1.20B785,2013-10-03 08:12:00,
2013-10-03 04:13:00,57.3,53.5,30.07,NNW,331,0.0,0.0,87,0.00,,,0.00,0,WeatherCatV1.20B785,2013-10-03 08:13:00,
2013-10-03 04:14:00,57.3,53.5,30.07,NNW,331,0.0,0.0,87,0.00,,,0.00,0,WeatherCatV1.20B785,2013-10-03 08:14:00,
2013-10-03 04:15:00,57.3,53.5,30.07,NNW,331,0.0,0.0,87,0.00,,,0.00,0,WeatherCatV1.20B785,2013-10-03 08:15:00,
2013-10-03 04:16:00,57.3,53.5,30.07,NNW,331,0.0,0.0,87,0.00,,,0.00,0,WeatherCatV1.20B785,2013-10-03 08:16:00,
2013-10-03 04:17:00,57.3,53.5,30.07,NNW,331,0.0,0.0,87,0.00,,,0.00,0,WeatherCatV1.20B785,2013-10-03 08:17:00,
2013-10-03 04:18:00,57.2,53.4,30.07,NNW,331,0.0,0.0,87,0.00,,,0.00,0,WeatherCatV1.20B785,2013-10-03 08:18:00,
2013-10-03 04:19:00,57.2,53.4,30.07,NNW,331,0.0,0.0,87,0.00,,,0.00,0,WeatherCatV1.20B785,2013-10-03 08:19:00,
2013-10-03 04:21:00,57.2,53.4,30.07,NNW,331,0.0,0.0,87,0.00,,,0.00,0,WeatherCatV1.20B785,2013-10-03 08:21:00,
2013-10-03 04:22:00,57.2,53.4,30.07,NNW,331,0.0,0.0,87,0.00,,,0.00,0,WeatherCatV1.20B785,2013-10-03 08:22:00,
2013-10-03 04:23:00,57.2,53.4,30.07,NNW,331,0.0,0.0,87,0.00,,,0.00,0,WeatherCatV1.20B785,2013-10-03 08:23:00,
2013-10-03 04:25:00,57.2,53.4,30.07,NNW,331,0.0,0.0,87,0.00,,,0.00,0,WeatherCatV1.20B785,2013-10-03 08:25:00,
2013-10-03 04:26:00,57.2,53.4,30.07,NNW,331,0.0,0.0,87,0.00,,,0.00,0,WeatherCatV1.20B785,2013-10-03 08:26:00,
2013-10-03 04:27:00,57.2,53.0,30.07,NNW,331,0.0,0.0,86,0.00,,,0.00,0,WeatherCatV1.20B785,2013-10-03 08:27:00,
2013-10-03 04:28:00,57.2,53.0,30.07,NNW,331,0.0,0.0,86,0.00,,,0.00,0,WeatherCatV1.20B785,2013-10-03 08:28:00,
2013-10-03 04:31:00,57.2,53.4,30.07,NNW,331,0.0,0.0,87,0.00,,,0.00,0,WeatherCatV1.20B785,2013-10-03 08:31:00,
2013-10-03 04:32:00,57.1,53.3,30.07,NNW,331,0.0,0.0,87,0.00,,,0.00,0,WeatherCatV1.20B785,2013-10-03 08:32:00,
2013-10-03 04:33:00,57.1,53.3,30.07,NNW,331,0.0,0.0,87,0.00,,,0.00,0,WeatherCatV1.20B785,2013-10-03 08:33:00,
2013-10-03 04:36:00,57.0,53.2,30.07,NNW,331,0.0,0.0,87,0.00,,,0.00,0,WeatherCatV1.20B785,2013-10-03 08:36:00,
2013-10-03 04:37:00,56.9,53.1,30.07,NNW,331,0.0,0.0,87,0.00,,,0.00,0,WeatherCatV1.20B785,2013-10-03 08:37:00,
2013-10-03 04:38:00,56.9,53.1,30.07,NNW,331,0.0,0.0,87,0.00,,,0.00,0,WeatherCatV1.20B785,2013-10-03 08:38:00,
2013-10-03 04:39:00,56.9,53.1,30.07,NNW,331,0.0,0.0,87,0.00,,,0.00,0,WeatherCatV1.20B785,2013-10-03 08:39:00,
2013-10-03 04:41:00,56.8,53.0,30.08,NNW,331,0.0,0.0,87,0.00,,,0.00,0,WeatherCatV1.20B785,2013-10-03 08:41:00,
2013-10-03 04:42:00,56.8,53.0,30.08,NNW,331,0.0,0.0,87,0.00,,,0.00,0,WeatherCatV1.20B785,2013-10-03 08:42:00,
2013-10-03 04:44:00,56.7,53.2,30.08,NNW,331,0.0,0.0,88,0.00,,,0.00,0,WeatherCatV1.20B785,2013-10-03 08:44:00,
2013-10-03 04:47:00,56.5,53.0,30.08,NNW,331,0.0,0.0,88,0.00,,,0.00,0,WeatherCatV1.20B785,2013-10-03 08:47:00,
2013-10-03 04:49:00,56.3,52.8,30.08,NNW,331,0.0,0.0,88,0.00,,,0.00,0,WeatherCatV1.20B785,2013-10-03 08:49:00,
2013-10-03 04:52:00,56.3,52.5,30.08,NNW,331,0.0,0.0,87,0.00,,,0.00,0,WeatherCatV1.20B785,2013-10-03 08:52:00,
2013-10-03 04:53:00,56.2,52.4,30.08,NNW,331,0.0,0.0,87,0.00,,,0.00,0,WeatherCatV1.20B785,2013-10-03 08:53:00,
2013-10-03 04:54:00,56.2,52.4,30.08,NNW,331,0.0,0.0,87,0.00,,,0.00,0,WeatherCatV1.20B785,2013-10-03 08:54:00,
2013-10-03 04:55:00,56.2,52.4,30.08,NNW,331,0.0,0.0,87,0.00,,,0.00,0,WeatherCatV1.20B785,2013-10-03 08:55:00,
2013-10-03 04:57:00,56.3,52.5,30.08,NNW,331,0.0,0.0,87,0.00,,,0.00,0,WeatherCatV1.20B785,2013-10-03 08:57:00,
2013-10-03 04:59:00,56.3,52.5,30.08,NNW,331,0.0,0.0,87,0.00,,,0.00,0,WeatherCatV1.20B785,2013-10-03 08:59:00,
2013-10-03 05:00:00,56.3,52.5,30.08,NNW,331,0.0,0.0,87,0.00,,,0.00,0,WeatherCatV1.20B785,2013-10-03 09:00:00,
2013-10-03 05:02:00,56.3,52.2,30.08,NNW,331,0.0,0.0,86,0.00,,,0.00,0,WeatherCatV1.20B785,2013-10-03 09:02:00,
2013-10-03 05:04:00,56.3,52.5,30.08,NNW,331,0.0,0.0,87,0.00,,,0.00,0,WeatherCatV1.20B785,2013-10-03 09:04:00,
2013-10-03 05:05:00,56.3,52.5,30.08,NNW,331,0.0,0.0,87,0.00,,,0.00,0,WeatherCatV1.20B785,2013-10-03 09:05:00,
2013-10-03 05:06:00,56.3,52.5,30.08,NNW,331,0.0,0.0,87,0.00,,,0.00,0,WeatherCatV1.20B785,2013-10-03 09:06:00,
2013-10-03 05:08:00,56.2,52.4,30.08,NNW,331,0.0,0.0,87,0.00,,,0.00,0,WeatherCatV1.20B785,2013-10-03 09:08:00,
2013-10-03 05:09:00,56.2,52.4,30.08,NNW,331,0.0,0.0,87,0.00,,,0.00,0,WeatherCatV1.20B785,2013-10-03 09:09:00,
2013-10-03 05:11:00,56.2,52.4,30.08,NNW,331,0.0,0.0,87,0.00,,,0.00,0,WeatherCatV1.20B785,2013-10-03 09:11:00,
2013-10-03 05:13:00,56.1,52.3,30.08,NNW,331,0.0,0.0,87,0.00,,,0.00,0,WeatherCatV1.20B785,2013-10-03 09:13:00,
2013-10-03 05:15:00,56.0,52.2,30.08,NNW,331,0.0,0.0,87,0.00,,,0.00,0,WeatherCatV1.20B785,2013-10-03 09:15:00,
2013-10-03 05:16:00,56.0,52.2,30.08,NNW,331,0.0,0.0,87,0.00,,,0.00,0,WeatherCatV1.20B785,2013-10-03 09:16:00,
2013-10-03 05:18:00,55.9,52.1,30.08,NNW,331,0.0,0.0,87,0.00,,,0.00,0,WeatherCatV1.20B785,2013-10-03 09:18:00,
2013-10-03 05:21:00,55.9,52.1,30.09,NNW,331,0.0,0.0,87,0.00,,,0.00,0,WeatherCatV1.20B785,2013-10-03 09:21:00,
2013-10-03 05:22:00,55.9,52.1,30.09,NNW,331,0.0,0.0,87,0.00,,,0.00,0,WeatherCatV1.20B785,2013-10-03 09:22:00,
2013-10-03 05:23:00,55.9,52.1,30.09,NNW,331,0.0,0.0,87,0.00,,,0.00,0,WeatherCatV1.20B785,2013-10-03 09:23:00,
2013-10-03 05:26:00,55.8,52.0,30.09,NNW,331,0.0,0.0,87,0.00,,,0.00,0,WeatherCatV1.20B785,2013-10-03 09:26:00,
2013-10-03 05:27:00,55.7,51.9,30.09,NNW,331,0.0,0.0,87,0.00,,,0.00,0,WeatherCatV1.20B785,2013-10-03 09:27:00,
2013-10-03 05:28:00,55.7,51.9,30.09,NNW,331,0.0,0.0,87,0.00,,,0.00,0,WeatherCatV1.20B785,2013-10-03 09:28:00,
2013-10-03 05:31:00,55.7,51.9,30.09,NNW,331,0.0,0.0,87,0.00,,,0.00,0,WeatherCatV1.20B785,2013-10-03 09:31:00,
2013-10-03 05:32:00,55.7,51.9,30.09,NNW,331,0.0,0.0,87,0.00,,,0.00,0,WeatherCatV1.20B785,2013-10-03 09:32:00,
2013-10-03 05:33:00,55.7,51.9,30.09,NNW,331,0.0,0.0,87,0.00,,,0.00,0,WeatherCatV1.20B785,2013-10-03 09:33:00,
2013-10-03 05:34:00,55.7,51.9,30.09,NNW,331,0.0,0.0,87,0.00,,,0.00,0,WeatherCatV1.20B785,2013-10-03 09:34:00,
2013-10-03 05:36:00,55.6,51.8,30.09,NNW,331,0.0,0.0,87,0.00,,,0.00,0,WeatherCatV1.20B785,2013-10-03 09:36:00,
2013-10-03 05:39:00,55.6,51.8,30.09,NNW,331,0.0,0.0,87,0.00,,,0.00,0,WeatherCatV1.20B785,2013-10-03 09:39:00,
2013-10-03 05:42:00,55.5,51.7,30.09,NNW,331,0.0,0.0,87,0.00,,,0.00,0,WeatherCatV1.20B785,2013-10-03 09:42:00,
2013-10-03 05:44:00,55.5,51.7,30.09,NNW,331,0.0,0.0,87,0.00,,,0.00,0,WeatherCatV1.20B785,2013-10-03 09:44:00,
2013-10-03 05:45:00,55.5,51.7,30.09,NNW,331,0.0,0.0,87,0.00,,,0.00,0,WeatherCatV1.20B785,2013-10-03 09:45:00,
2013-10-03 05:49:00,55.4,51.6,30.09,NNW,331,0.0,0.0,87,0.00,,,0.00,0,WeatherCatV1.20B785,2013-10-03 09:49:00,
2013-10-03 05:50:00,55.4,51.6,30.09,NNW,331,0.0,0.0,87,0.00,,,0.00,0,WeatherCatV1.20B785,2013-10-03 09:50:00,
2013-10-03 05:51:00,55.4,51.6,30.09,NNW,331,0.0,0.0,87,0.00,,,0.00,0,WeatherCatV1.20B785,2013-10-03 09:51:00,
2013-10-03 05:54:00,55.3,51.5,30.09,NNW,331,0.0,0.0,87,0.00,,,0.00,0,WeatherCatV1.20B785,2013-10-03 09:54:00,
2013-10-03 05:55:00,55.3,51.5,30.09,NNW,331,0.0,0.0,87,0.00,,,0.00,0,WeatherCatV1.20B785,2013-10-03 09:55:00,
2013-10-03 05:56:00,55.3,51.5,30.09,NNW,331,0.0,0.0,87,0.00,,,0.00,0,WeatherCatV1.20B785,2013-10-03 09:56:00,
2013-10-03 05:59:00,55.2,51.4,30.09,NNW,331,0.0,0.0,87,0.00,,,0.00,0,WeatherCatV1.20B785,2013-10-03 09:59:00,
2013-10-03 06:00:00,55.1,51.3,30.09,NNW,331,0.0,0.0,87,0.00,,,0.00,0,WeatherCatV1.20B785,2013-10-03 10:00:00,
2013-10-03 06:01:00,55.1,51.3,30.09,NNW,331,0.0,0.0,87,0.00,,,0.00,0,WeatherCatV1.20B785,2013-10-03 10:01:00,
2013-10-03 06:02:00,55.1,51.3,30.09,NNW,331,0.0,0.0,87,0.00,,,0.00,0,WeatherCatV1.20B785,2013-10-03 10:02:00,
2013-10-03 06:04:00,55.0,51.2,30.09,NNW,331,0.0,0.0,87,0.00,,,0.00,0,WeatherCatV1.20B785,2013-10-03 10:04:00,
2013-10-03 06:05:00,54.9,51.1,30.09,NNW,331,0.0,0.0,87,0.00,,,0.00,0,WeatherCatV1.20B785,2013-10-03 10:05:00,
2013-10-03 06:06:00,54.9,51.1,30.09,NNW,331,0.0,0.0,87,0.00,,,0.00,0,WeatherCatV1.20B785,2013-10-03 10:06:00,
2013-10-03 06:07:00,54.9,51.1,30.09,NNW,331,0.0,0.0,87,0.00,,,0.00,0,WeatherCatV1.20B785,2013-10-03 10:07:00,
2013-10-03 06:08:00,54.9,51.1,30.09,NNW,331,0.0,0.0,87,0.00,,,0.00,0,WeatherCatV1.20B785,2013-10-03 10:08:00,
2013-10-03 06:09:00,54.8,51.0,30.09,NNW,331,0.0,0.0,87,0.00,,,0.00,0,WeatherCatV1.20B785,2013-10-03 10:09:00,
2013-10-03 06:11:00,54.8,51.0,30.09,NNW,331,0.0,0.0,87,0.00,,,0.00,0,WeatherCatV1.20B785,2013-10-03 10:11:00,
2013-10-03 06:12:00,54.7,50.9,30.09,NNW,331,0.0,0.0,87,0.00,,,0.00,0,WeatherCatV1.20B785,2013-10-03 10:12:00,
2013-10-03 06:13:00,54.7,50.9,30.09,NNW,331,0.0,0.0,87,0.00,,,0.00,0,WeatherCatV1.20B785,2013-10-03 10:13:00,
2013-10-03 06:15:00,54.6,50.8,30.09,NNW,331,0.0,0.0,87,0.00,,,0.00,0,WeatherCatV1.20B785,2013-10-03 10:15:00,
2013-10-03 06:16:00,54.6,50.8,30.09,NNW,331,0.0,0.0,87,0.00,,,0.00,0,WeatherCatV1.20B785,2013-10-03 10:16:00,
2013-10-03 06:17:00,54.6,50.8,30.10,NNW,331,0.0,0.0,87,0.00,,,0.00,0,WeatherCatV1.20B785,2013-10-03 10:17:00,
2013-10-03 06:18:00,54.5,50.7,30.09,NNW,331,0.0,0.0,87,0.00,,,0.00,0,WeatherCatV1.20B785,2013-10-03 10:18:00,
2013-10-03 06:20:00,54.5,50.7,30.09,NNW,331,0.0,0.0,87,0.00,,,0.00,0,WeatherCatV1.20B785,2013-10-03 10:20:00,
2013-10-03 06:21:00,54.5,50.7,30.09,NNW,331,0.0,0.0,87,0.00,,,0.00,0,WeatherCatV1.20B785,2013-10-03 10:21:00,
2013-10-03 06:22:00,54.4,50.6,30.09,NNW,331,0.0,0.0,87,0.00,,,0.00,0,WeatherCatV1.20B785,2013-10-03 10:22:00,
2013-10-03 06:23:00,54.4,50.6,30.09,NNW,331,0.0,0.0,87,0.00,,,0.00,0,WeatherCatV1.20B785,2013-10-03 10:23:00,
2013-10-03 06:24:00,54.4,50.6,30.09,NNW,331,0.0,0.0,87,0.00,,,0.00,0,WeatherCatV1.20B785,2013-10-03 10:24:00,
2013-10-03 06:25:00,54.3,50.5,30.09,NNW,331,0.0,0.0,87,0.00,,,0.00,0,WeatherCatV1.20B785,2013-10-03 10:25:00,
2013-10-03 06:26:00,54.3,50.5,30.09,NNW,331,0.0,0.0,87,0.00,,,0.00,0,WeatherCatV1.20B785,2013-10-03 10:26:00,
2013-10-03 06:27:00,54.3,50.5,30.10,NNW,331,0.0,0.0,87,0.00,,,0.00,0,WeatherCatV1.20B785,2013-10-03 10:27:00,
2013-10-03 06:29:00,54.3,50.5,30.09,NNW,331,0.0,0.0,87,0.00,,,0.00,0,WeatherCatV1.20B785,2013-10-03 10:29:00,
2013-10-03 06:30:00,54.3,50.5,30.10,NNW,331,0.0,0.0,87,0.00,,,0.00,0,WeatherCatV1.20B785,2013-10-03 10:30:00,
2013-10-03 06:31:00,54.3,50.5,30.10,NNW,331,0.0,0.0,87,0.00,,,0.00,0,WeatherCatV1.20B785,2013-10-03 10:31:00,
2013-10-03 06:33:00,54.3,50.2,30.10,NNW,331,0.0,0.0,86,0.00,,,0.00,0,WeatherCatV1.20B785,2013-10-03 10:33:00,
2013-10-03 06:34:00,54.4,50.3,30.10,NNW,331,0.0,0.0,86,0.00,,,0.00,0,WeatherCatV1.20B785,2013-10-03 10:34:00,
2013-10-03 06:35:00,54.4,50.3,30.10,NNW,331,0.0,0.0,86,0.00,,,0.00,0,WeatherCatV1.20B785,2013-10-03 10:35:00,
2013-10-03 06:37:00,54.4,50.3,30.09,NNW,331,0.0,0.0,86,0.00,,,0.00,0,WeatherCatV1.20B785,2013-10-03 10:37:00,
2013-10-03 06:38:00,54.4,50.3,30.10,NNW,331,0.0,0.0,86,0.00,,,0.00,0,WeatherCatV1.20B785,2013-10-03 10:38:00,
2013-10-03 06:39:00,54.4,50.3,30.10,NNW,331,0.0,0.0,86,0.00,,,0.00,0,WeatherCatV1.20B785,2013-10-03 10:39:00,
2013-10-03 06:40:00,54.5,50.4,30.10,NNW,331,0.0,0.0,86,0.00,,,0.00,0,WeatherCatV1.20B785,2013-10-03 10:40:00,
2013-10-03 06:42:00,54.4,50.3,30.10,NNW,331,0.0,0.0,86,0.00,,,0.00,0,WeatherCatV1.20B785,2013-10-03 10:42:00,
2013-10-03 06:44:00,54.4,50.3,30.10,NNW,331,0.0,0.0,86,0.00,,,0.00,0,WeatherCatV1.20B785,2013-10-03 10:44:00,
2013-10-03 06:45:00,54.4,50.3,30.10,NNW,331,0.0,0.0,86,0.00,,,0.00,0,WeatherCatV1.20B785,2013-10-03 10:45:00,
2013-10-03 06:46:00,54.4,50.3,30.10,NNW,331,0.0,0.0,86,0.00,,,0.00,0,WeatherCatV1.20B785,2013-10-03 10:46:00,
2013-10-03 06:47:00,54.4,50.3,30.10,NNW,331,0.0,0.0,86,0.00,,,0.00,0,WeatherCatV1.20B785,2013-10-03 10:47:00,
2013-10-03 06:49:00,54.3,50.2,30.10,NNW,331,0.0,0.0,86,0.00,,,0.00,0,WeatherCatV1.20B785,2013-10-03 10:49:00,
2013-10-03 06:50:00,54.3,50.2,30.10,NNW,331,0.0,0.0,86,0.00,,,0.00,0,WeatherCatV1.20B785,2013-10-03 10:50:00,
2013-10-03 06:51:00,54.3,50.2,30.10,NNW,331,0.0,0.0,86,0.00,,,0.00,0,WeatherCatV1.20B785,2013-10-03 10:51:00,
2013-10-03 06:53:00,54.2,50.1,30.10,NNW,331,0.0,0.0,86,0.00,,,0.00,0,WeatherCatV1.20B785,2013-10-03 10:53:00,
2013-10-03 06:54:00,54.2,50.4,30.10,NNW,331,0.0,0.0,87,0.00,,,0.00,0,WeatherCatV1.20B785,2013-10-03 10:54:00,
2013-10-03 06:55:00,54.2,50.4,30.10,NNW,331,0.0,0.0,87,0.00,,,0.00,0,WeatherCatV1.20B785,2013-10-03 10:55:00,
2013-10-03 06:56:00,54.2,50.4,30.10,NNW,331,0.0,0.0,87,0.00,,,0.00,0,WeatherCatV1.20B785,2013-10-03 10:56:00,
2013-10-03 06:58:00,54.1,50.3,30.10,NNW,331,0.0,0.0,87,0.00,,,0.00,0,WeatherCatV1.20B785,2013-10-03 10:58:00,
2013-10-03 06:59:00,54.1,50.3,30.10,NNW,331,0.0,0.0,87,0.00,,,0.00,0,WeatherCatV1.20B785,2013-10-03 10:59:00,
2013-10-03 07:01:00,54.1,50.3,30.10,NNW,331,0.0,0.0,87,0.00,,,0.00,0,WeatherCatV1.20B785,2013-10-03 11:01:00,
2013-10-03 07:03:00,54.1,50.0,30.10,NNW,331,0.0,0.0,86,0.00,,,0.00,0,WeatherCatV1.20B785,2013-10-03 11:03:00,
2013-10-03 07:04:00,54.1,50.0,30.10,NNW,331,0.0,0.0,86,0.00,,,0.00,0,WeatherCatV1.20B785,2013-10-03 11:04:00,
2013-10-03 07:06:00,54.1,50.0,30.10,NNW,331,0.0,0.0,86,0.00,,,0.00,0,WeatherCatV1.20B785,2013-10-03 11:06:00,
2013-10-03 07:07:00,54.1,50.0,30.10,NNW,331,0.0,0.0,86,0.00,,,0.00,0,WeatherCatV1.20B785,2013-10-03 11:07:00,
2013-10-03 07:08:00,54.1,50.0,30.10,NNW,331,0.0,0.0,86,0.00,,,0.00,0,WeatherCatV1.20B785,2013-10-03 11:08:00,
2013-10-03 07:09:00,54.1,50.0,30.10,NNW,331,0.0,0.0,86,0.00,,,0.00,0,WeatherCatV1.20B785,2013-10-03 11:09:00,
2013-10-03 07:10:00,54.2,50.1,30.10,NNW,331,0.0,0.0,86,0.00,,,0.00,0,WeatherCatV1.20B785,2013-10-03 11:10:00,
2013-10-03 07:11:00,54.2,50.1,30.10,NNW,331,0.0,0.0,86,0.00,,,0.00,0,WeatherCatV1.20B785,2013-10-03 11:11:00,
2013-10-03 07:12:00,54.2,50.1,30.10,NNW,331,0.0,0.0,86,0.00,,,0.00,0,WeatherCatV1.20B785,2013-10-03 11:12:00,
2013-10-03 07:14:00,54.2,50.1,30.10,NNW,331,0.0,0.0,86,0.00,,,0.00,0,WeatherCatV1.20B785,2013-10-03 11:14:00,
2013-10-03 07:15:00,54.2,50.1,30.10,NNW,331,0.0,0.0,86,0.00,,,0.00,0,WeatherCatV1.20B785,2013-10-03 11:15:00,
2013-10-03 07:17:00,54.2,50.1,30.10,NNW,331,0.0,0.0,86,0.00,,,0.00,5,WeatherCatV1.20B785,2013-10-03 11:17:00,
2013-10-03 07:18:00,54.2,50.1,30.10,NNW,331,0.0,0.0,86,0.00,,,0.00,5,WeatherCatV1.20B785,2013-10-03 11:18:00,
2013-10-03 07:19:00,54.2,50.1,30.10,NNW,331,0.0,0.0,86,0.00,,,0.00,5,WeatherCatV1.20B785,2013-10-03 11:19:00,
2013-10-03 07:20:00,54.2,50.1,30.10,NNW,331,0.0,0.0,86,0.00,,,0.00,5,WeatherCatV1.20B785,2013-10-03 11:20:00,
2013-10-03 07:22:00,54.2,50.1,30.10,NNW,331,0.0,0.0,86,0.00,,,0.00,7,WeatherCatV1.20B785,2013-10-03 11:22:00,
2013-10-03 07:23:00,54.2,50.1,30.10,NNW,331,0.0,0.0,86,0.00,,,0.00,7,WeatherCatV1.20B785,2013-10-03 11:23:00,
2013-10-03 07:24:00,54.3,50.2,30.10,NNW,331,0.0,0.0,86,0.00,,,0.00,9,WeatherCatV1.20B785,2013-10-03 11:24:00,
2013-10-03 07:26:00,54.3,50.2,30.10,NNW,331,0.0,0.0,86,0.00,,,0.00,9,WeatherCatV1.20B785,2013-10-03 11:26:00,
2013-10-03 07:27:00,54.3,50.2,30.10,NNW,331,0.0,0.0,86,0.00,,,0.00,11,WeatherCatV1.20B785,2013-10-03 11:27:00,
2013-10-03 07:28:00,54.3,50.2,30.10,NNW,331,0.0,0.0,86,0.00,,,0.00,11,WeatherCatV1.20B785,2013-10-03 11:28:00,
2013-10-03 07:29:00,54.3,50.2,30.10,NNW,331,0.0,0.0,86,0.00,,,0.00,11,WeatherCatV1.20B785,2013-10-03 11:29:00,
2013-10-03 07:30:00,54.3,50.2,30.10,NNW,331,0.0,0.0,86,0.00,,,0.00,11,WeatherCatV1.20B785,2013-10-03 11:30:00,
2013-10-03 07:31:00,54.3,50.2,30.10,NNW,331,0.0,0.0,86,0.00,,,0.00,12,WeatherCatV1.20B785,2013-10-03 11:31:00,
2013-10-03 07:32:00,54.3,50.2,30.10,NNW,331,0.0,0.0,86,0.00,,,0.00,12,WeatherCatV1.20B785,2013-10-03 11:32:00,
2013-10-03 07:33:00,54.3,50.2,30.10,NNW,331,0.0,0.0,86,0.00,,,0.00,12,WeatherCatV1.20B785,2013-10-03 11:33:00,
2013-10-03 07:34:00,54.3,50.2,30.10,NNW,331,0.0,0.0,86,0.00,,,0.00,12,WeatherCatV1.20B785,2013-10-03 11:34:00,
2013-10-03 07:35:00,54.3,50.2,30.10,NNW,331,0.0,0.0,86,0.00,,,0.00,14,WeatherCatV1.20B785,2013-10-03 11:35:00,
2013-10-03 07:36:00,54.4,50.3,30.11,NNW,331,0.0,0.0,86,0.00,,,0.00,16,WeatherCatV1.20B785,2013-10-03 11:36:00,
2013-10-03 07:37:00,54.4,50.3,30.11,NNW,331,0.0,0.0,86,0.00,,,0.00,16,WeatherCatV1.20B785,2013-10-03 11:37:00,
2013-10-03 07:40:00,54.4,50.3,30.11,NNW,331,0.0,0.0,86,0.00,,,0.00,19,WeatherCatV1.20B785,2013-10-03 11:40:00,
2013-10-03 07:41:00,54.5,50.4,30.11,NNW,331,0.0,0.0,86,0.00,,,0.00,18,WeatherCatV1.20B785,2013-10-03 11:41:00,
2013-10-03 07:42:00,54.5,50.4,30.11,NNW,331,0.0,0.0,86,0.00,,,0.00,18,WeatherCatV1.20B785,2013-10-03 11:42:00,
2013-10-03 07:43:00,54.5,50.4,30.11,NNW,331,0.0,0.0,86,0.00,,,0.00,19,WeatherCatV1.20B785,2013-10-03 11:43:00,
2013-10-03 07:45:00,54.6,50.5,30.11,NNW,331,0.0,0.0,86,0.00,,,0.00,19,WeatherCatV1.20B785,2013-10-03 11:45:00,
2013-10-03 07:46:00,54.6,50.5,30.11,NNW,331,0.0,0.0,86,0.00,,,0.00,19,WeatherCatV1.20B785,2013-10-03 11:46:00,
2013-10-03 07:47:00,54.6,50.5,30.11,NNW,331,0.0,0.0,86,0.00,,,0.00,19,WeatherCatV1.20B785,2013-10-03 11:47:00,
2013-10-03 07:48:00,54.6,50.5,30.11,NNW,331,0.0,0.0,86,0.00,,,0.00,19,WeatherCatV1.20B785,2013-10-03 11:48:00,
2013-10-03 07:51:00,54.8,50.7,30.11,NNW,331,0.0,0.0,86,0.00,,,0.00,19,WeatherCatV1.20B785,2013-10-03 11:51:00,
2013-10-03 07:52:00,54.9,50.8,30.11,NNW,331,0.0,0.0,86,0.00,,,0.00,19,WeatherCatV1.20B785,2013-10-03 11:52:00,
2013-10-03 07:53:00,55.0,50.9,30.11,NNW,331,0.0,0.0,86,0.00,,,0.00,18,WeatherCatV1.20B785,2013-10-03 11:53:00,
2013-10-03 07:54:00,55.1,51.0,30.11,NNW,331,0.0,0.0,86,0.00,,,0.00,19,WeatherCatV1.20B785,2013-10-03 11:54:00,
2013-10-03 07:56:00,55.1,51.0,30.11,NNW,331,0.0,1.0,86,0.00,,,0.00,26,WeatherCatV1.20B785,2013-10-03 11:56:00,
2013-10-03 07:57:00,55.2,51.1,30.11,NNW,331,0.0,0.0,86,0.00,,,0.00,30,WeatherCatV1.20B785,2013-10-03 11:57:00,
2013-10-03 07:58:00,55.2,51.1,30.11,NNW,331,0.0,0.0,86,0.00,,,0.00,33,WeatherCatV1.20B785,2013-10-03 11:58:00,
2013-10-03 07:59:00,55.2,51.1,30.11,NNW,331,0.0,0.0,86,0.00,,,0.00,37,WeatherCatV1.20B785,2013-10-03 11:59:00,
2013-10-03 08:01:00,55.2,51.1,30.11,NNW,331,0.0,0.0,86,0.00,,,0.00,40,WeatherCatV1.20B785,2013-10-03 12:01:00,
2013-10-03 08:03:00,55.3,51.2,30.11,NNW,331,0.0,0.0,86,0.00,,,0.00,35,WeatherCatV1.20B785,2013-10-03 12:03:00,
2013-10-03 08:04:00,55.3,51.2,30.11,NNW,331,0.0,0.0,86,0.00,,,0.00,35,WeatherCatV1.20B785,2013-10-03 12:04:00,
2013-10-03 08:06:00,55.4,51.3,30.11,NNW,331,0.0,0.0,86,0.00,,,0.00,39,WeatherCatV1.20B785,2013-10-03 12:06:00,
2013-10-03 08:08:00,55.4,51.3,30.11,NNW,331,0.0,0.0,86,0.00,,,0.00,44,WeatherCatV1.20B785,2013-10-03 12:08:00,
2013-10-03 08:09:00,55.4,51.3,30.11,NNW,331,0.0,0.0,86,0.00,,,0.00,46,WeatherCatV1.20B785,2013-10-03 12:09:00,
2013-10-03 08:10:00,55.5,51.4,30.11,NNW,331,0.0,0.0,86,0.00,,,0.00,51,WeatherCatV1.20B785,2013-10-03 12:10:00,
2013-10-03 08:11:00,55.5,51.4,30.11,NNW,331,0.0,0.0,86,0.00,,,0.00,54,WeatherCatV1.20B785,2013-10-03 12:11:00,
2013-10-03 08:13:00,55.6,51.5,30.12,NNW,331,0.0,0.0,86,0.00,,,0.00,56,WeatherCatV1.20B785,2013-10-03 12:13:00,
2013-10-03 08:14:00,55.6,51.5,30.12,NNW,331,0.0,0.0,86,0.00,,,0.00,56,WeatherCatV1.20B785,2013-10-03 12:14:00,
2013-10-03 08:16:00,55.7,51.6,30.12,NNW,331,0.0,0.0,86,0.00,,,0.00,81,WeatherCatV1.20B785,2013-10-03 12:16:00,
2013-10-03 08:19:00,55.9,51.8,30.12,NNW,331,1.0,1.0,86,0.00,,,0.00,76,WeatherCatV1.20B785,2013-10-03 12:19:00,
2013-10-03 08:20:00,56.0,51.9,30.12,North,353,1.0,1.0,86,0.00,,,0.00,83,WeatherCatV1.20B785,2013-10-03 12:20:00,
2013-10-03 08:22:00,56.1,52.0,30.12,North,358,0.0,1.0,86,0.00,,,0.00,77,WeatherCatV1.20B785,2013-10-03 12:22:00,
2013-10-03 08:25:00,56.3,52.2,30.12,NNE,17,0.0,1.0,86,0.00,,,0.00,76,WeatherCatV1.20B785,2013-10-03 12:25:00,
2013-10-03 08:26:00,56.3,52.2,30.12,NNE,26,0.0,1.0,86,0.00,,,0.00,70,WeatherCatV1.20B785,2013-10-03 12:26:00,
2013-10-03 08:27:00,56.4,52.3,30.12,NNE,26,0.0,1.0,86,0.00,,,0.00,79,WeatherCatV1.20B785,2013-10-03 12:27:00,
2013-10-03 08:28:00,56.4,52.3,30.12,NNE,26,0.0,0.0,86,0.00,,,0.00,79,WeatherCatV1.20B785,2013-10-03 12:28:00,
2013-10-03 08:30:00,56.5,52.4,30.11,NNE,26,0.0,0.0,86,0.00,,,0.00,65,WeatherCatV1.20B785,2013-10-03 12:30:00,
2013-10-03 08:31:00,56.5,52.4,30.11,NNE,26,0.0,0.0,86,0.00,,,0.00,65,WeatherCatV1.20B785,2013-10-03 12:31:00,
2013-10-03 08:32:00,56.6,52.5,30.11,NNE,26,0.0,0.0,86,0.00,,,0.00,60,WeatherCatV1.20B785,2013-10-03 12:32:00,
2013-10-03 08:34:00,56.6,52.5,30.11,NNE,26,0.0,0.0,86,0.00,,,0.00,58,WeatherCatV1.20B785,2013-10-03 12:34:00,
2013-10-03 08:36:00,56.6,52.5,30.11,NNE,26,1.0,1.0,86,0.00,,,0.00,58,WeatherCatV1.20B785,2013-10-03 12:36:00,
2013-10-03 08:38:00,56.6,52.5,30.11,NNE,26,0.0,0.0,86,0.00,,,0.00,65,WeatherCatV1.20B785,2013-10-03 12:38:00,
2013-10-03 08:40:00,56.7,52.6,30.11,NNE,26,0.0,0.0,86,0.00,,,0.00,70,WeatherCatV1.20B785,2013-10-03 12:40:00,
2013-10-03 08:41:00,56.7,52.6,30.11,NNE,26,0.0,0.0,86,0.00,,,0.00,74,WeatherCatV1.20B785,2013-10-03 12:41:00,
2013-10-03 08:42:00,56.8,52.7,30.11,NNE,26,0.0,0.0,86,0.00,,,0.00,70,WeatherCatV1.20B785,2013-10-03 12:42:00,
2013-10-03 08:43:00,56.8,52.7,30.11,NNE,26,1.0,2.0,86,0.00,,,0.00,70,WeatherCatV1.20B785,2013-10-03 12:43:00,
2013-10-03 08:45:00,56.8,52.7,30.11,NNE,26,0.0,1.0,86,0.00,,,0.00,74,WeatherCatV1.20B785,2013-10-03 12:45:00,
2013-10-03 08:47:00,56.8,52.7,30.12,NNE,26,0.0,0.0,86,0.00,,,0.00,76,WeatherCatV1.20B785,2013-10-03 12:47:00,
2013-10-03 08:48:00,56.9,52.8,30.11,NNE,26,0.0,0.0,86,0.00,,,0.00,76,WeatherCatV1.20B785,2013-10-03 12:48:00,
2013-10-03 08:50:00,57.0,52.8,30.11,NNE,26,0.0,0.0,86,0.00,,,0.00,81,WeatherCatV1.20B785,2013-10-03 12:50:00,
2013-10-03 08:53:00,57.1,53.0,30.12,NNE,26,0.0,0.0,86,0.00,,,0.00,83,WeatherCatV1.20B785,2013-10-03 12:53:00,
2013-10-03 08:54:00,57.2,53.0,30.12,NNE,26,0.0,0.0,86,0.00,,,0.00,84,WeatherCatV1.20B785,2013-10-03 12:54:00,
2013-10-03 08:55:00,57.3,53.2,30.12,NNE,26,0.0,0.0,86,0.00,,,0.00,86,WeatherCatV1.20B785,2013-10-03 12:55:00,
2013-10-03 08:56:00,57.3,53.2,30.12,NNE,26,1.0,1.0,86,0.00,,,0.00,90,WeatherCatV1.20B785,2013-10-03 12:56:00,
2013-10-03 08:58:00,57.4,53.2,30.12,NNE,26,1.0,1.0,86,0.00,,,0.00,91,WeatherCatV1.20B785,2013-10-03 12:58:00,
2013-10-03 08:59:00,57.5,53.3,30.12,NNE,33,1.0,1.0,86,0.00,,,0.00,95,WeatherCatV1.20B785,2013-10-03 12:59:00,
2013-10-03 09:00:00,57.6,53.4,30.12,NE,34,0.0,1.0,86,0.00,,,0.00,100,WeatherCatV1.20B785,2013-10-03 13:00:00,
2013-10-03 09:01:00,57.6,53.4,30.12,NE,34,0.0,1.0,86,0.00,,,0.00,100,WeatherCatV1.20B785,2013-10-03 13:01:00,
2013-10-03 09:03:00,57.7,53.5,30.12,NE,34,0.0,1.0,86,0.00,,,0.00,104,WeatherCatV1.20B785,2013-10-03 13:03:00,
2013-10-03 09:04:00,57.7,53.5,30.12,NE,34,0.0,1.0,86,0.00,,,0.00,105,WeatherCatV1.20B785,2013-10-03 13:04:00,
2013-10-03 09:05:00,57.8,54.0,30.12,NE,34,1.0,1.0,87,0.00,,,0.00,107,WeatherCatV1.20B785,2013-10-03 13:05:00,
2013-10-03 09:07:00,57.8,53.6,30.11,NE,34,0.0,1.0,86,0.00,,,0.00,109,WeatherCatV1.20B785,2013-10-03 13:07:00,
2013-10-03 09:08:00,57.9,53.7,30.12,NE,34,0.0,0.0,86,0.00,,,0.00,111,WeatherCatV1.20B785,2013-10-03 13:08:00,
2013-10-03 09:09:00,57.9,53.7,30.12,NE,34,0.0,0.0,86,0.00,,,0.00,113,WeatherCatV1.20B785,2013-10-03 13:09:00,
2013-10-03 09:11:00,58.0,54.2,30.12,NE,34,0.0,0.0,87,0.00,,,0.00,114,WeatherCatV1.20B785,2013-10-03 13:11:00,
2013-10-03 09:12:00,58.1,54.2,30.12,NE,34,0.0,0.0,87,0.00,,,0.00,114,WeatherCatV1.20B785,2013-10-03 13:12:00,
2013-10-03 09:13:00,58.2,54.3,30.12,NE,34,0.0,1.0,87,0.00,,,0.00,116,WeatherCatV1.20B785,2013-10-03 13:13:00,
2013-10-03 09:16:00,58.3,54.4,30.12,NE,34,0.0,1.0,87,0.00,,,0.00,121,WeatherCatV1.20B785,2013-10-03 13:16:00,
2013-10-03 09:18:00,58.4,54.5,30.12,NE,34,0.0,0.0,87,0.00,,,0.00,123,WeatherCatV1.20B785,2013-10-03 13:18:00,
2013-10-03 09:19:00,58.4,54.5,30.12,NE,34,0.0,0.0,87,0.00,,,0.00,125,WeatherCatV1.20B785,2013-10-03 13:19:00,
2013-10-03 09:21:00,58.5,54.6,30.12,NE,34,0.0,0.0,87,0.00,,,0.00,125,WeatherCatV1.20B785,2013-10-03 13:21:00,
2013-10-03 09:22:00,58.6,54.7,30.12,NE,34,0.0,0.0,87,0.00,,,0.00,127,WeatherCatV1.20B785,2013-10-03 13:22:00,
2013-10-03 09:23:00,58.6,55.0,30.12,NE,34,0.0,0.0,88,0.00,,,0.00,127,WeatherCatV1.20B785,2013-10-03 13:23:00,
2013-10-03 09:24:00,58.7,54.8,30.12,NE,34,0.0,0.0,87,0.00,,,0.00,128,WeatherCatV1.20B785,2013-10-03 13:24:00,
2013-10-03 09:26:00,58.9,55.0,30.12,NE,34,0.0,0.0,87,0.00,,,0.00,132,WeatherCatV1.20B785,2013-10-03 13:26:00,
2013-10-03 09:27:00,58.9,55.0,30.12,NNE,32,1.0,1.0,87,0.00,,,0.00,134,WeatherCatV1.20B785,2013-10-03 13:27:00,
2013-10-03 09:28:00,59.0,55.1,30.12,NNE,29,0.0,1.0,87,0.00,,,0.00,130,WeatherCatV1.20B785,2013-10-03 13:28:00,
2013-10-03 09:29:00,59.1,55.2,30.12,NNE,29,0.0,1.0,87,0.00,,,0.00,134,WeatherCatV1.20B785,2013-10-03 13:29:00,
2013-10-03 09:31:00,59.2,55.6,30.12,NNE,29,0.0,0.0,88,0.00,,,0.00,135,WeatherCatV1.20B785,2013-10-03 13:31:00,
2013-10-03 09:32:00,59.2,55.6,30.12,NNE,29,0.0,0.0,88,0.00,,,0.00,139,WeatherCatV1.20B785,2013-10-03 13:32:00,
2013-10-03 09:33:00,59.3,55.7,30.13,NNE,29,0.0,0.0,88,0.00,,,0.00,142,WeatherCatV1.20B785,2013-10-03 13:33:00,
2013-10-03 09:34:00,59.4,55.8,30.13,NNE,29,0.0,0.0,88,0.00,,,0.00,141,WeatherCatV1.20B785,2013-10-03 13:34:00,
2013-10-03 09:36:00,59.6,56.0,30.13,NNE,29,0.0,0.0,88,0.00,,,0.00,128,WeatherCatV1.20B785,2013-10-03 13:36:00,
2013-10-03 09:37:00,59.6,56.0,30.13,NNE,29,0.0,0.0,88,0.00,,,0.00,121,WeatherCatV1.20B785,2013-10-03 13:37:00,
2013-10-03 09:38:00,59.7,56.1,30.13,NNE,29,0.0,0.0,88,0.00,,,0.00,121,WeatherCatV1.20B785,2013-10-03 13:38:00,
2013-10-03 09:39:00,59.8,56.2,30.13,NNE,29,0.0,0.0,88,0.00,,,0.00,127,WeatherCatV1.20B785,2013-10-03 13:39:00,
2013-10-03 09:40:00,59.8,56.2,30.13,NNE,29,0.0,0.0,88,0.00,,,0.00,127,WeatherCatV1.20B785,2013-10-03 13:40:00,
2013-10-03 09:42:00,60.0,56.4,30.13,NNE,29,0.0,0.0,88,0.00,,,0.00,142,WeatherCatV1.20B785,2013-10-03 13:42:00,
2013-10-03 09:43:00,60.1,56.5,30.13,NNE,29,0.0,0.0,88,0.00,,,0.00,151,WeatherCatV1.20B785,2013-10-03 13:43:00,
2013-10-03 09:45:00,60.3,57.0,30.13,NNE,29,0.0,0.0,89,0.00,,,0.00,158,WeatherCatV1.20B785,2013-10-03 13:45:00,
2013-10-03 09:47:00,60.5,57.2,30.13,NNE,29,0.0,0.0,89,0.00,,,0.00,111,WeatherCatV1.20B785,2013-10-03 13:47:00,
2013-10-03 09:48:00,60.6,57.3,30.13,ENE,75,0.0,1.0,89,0.00,,,0.00,171,WeatherCatV1.20B785,2013-10-03 13:48:00,
2013-10-03 09:49:00,60.8,57.5,30.13,ENE,75,0.0,1.0,89,0.00,,,0.00,172,WeatherCatV1.20B785,2013-10-03 13:49:00,
2013-10-03 09:50:00,60.9,57.3,30.12,ENE,75,0.0,0.0,88,0.00,,,0.00,174,WeatherCatV1.20B785,2013-10-03 13:50:00,
2013-10-03 09:52:00,61.1,57.5,30.12,ENE,75,0.0,1.0,88,0.00,,,0.00,176,WeatherCatV1.20B785,2013-10-03 13:52:00,
2013-10-03 09:53:00,61.2,57.9,30.12,ENE,75,0.0,0.0,89,0.00,,,0.00,202,WeatherCatV1.20B785,2013-10-03 13:53:00,
2013-10-03 09:55:00,61.4,57.8,30.12,ENE,75,0.0,1.0,88,0.00,,,0.00,204,WeatherCatV1.20B785,2013-10-03 13:55:00,
2013-10-03 09:56:00,61.6,58.3,30.12,ENE,75,0.0,0.0,89,0.00,,,0.00,197,WeatherCatV1.20B785,2013-10-03 13:56:00,
2013-10-03 09:57:00,61.8,58.2,30.13,South,184,0.0,2.0,88,0.00,,,0.00,206,WeatherCatV1.20B785,2013-10-03 13:57:00,
2013-10-03 09:58:00,62.0,58.4,30.13,SSE,152,0.0,2.0,88,0.00,,,0.00,213,WeatherCatV1.20B785,2013-10-03 13:58:00,
2013-10-03 10:00:00,62.1,58.5,30.12,SE,143,0.0,1.0,88,0.00,,,0.00,227,WeatherCatV1.20B785,2013-10-03 14:00:00,
2013-10-03 10:01:00,62.3,58.7,30.12,SE,143,0.0,0.0,88,0.00,,,0.00,227,WeatherCatV1.20B785,2013-10-03 14:01:00,
2013-10-03 10:02:00,62.3,58.7,30.12,SE,143,0.0,1.0,88,0.00,,,0.00,225,WeatherCatV1.20B785,2013-10-03 14:02:00,
2013-10-03 10:03:00,62.5,58.9,30.12,SE,143,0.0,1.0,88,0.00,,,0.00,221,WeatherCatV1.20B785,2013-10-03 14:03:00,
2013-10-03 10:04:00,62.6,59.0,30.13,SE,127,1.0,1.0,88,0.00,,,0.00,216,WeatherCatV1.20B785,2013-10-03 14:04:00,
2013-10-03 10:05:00,62.8,59.2,30.13,East,100,2.0,2.0,88,0.00,,,0.00,211,WeatherCatV1.20B785,2013-10-03 14:05:00,
2013-10-03 10:06:00,62.8,59.2,30.12,East,100,0.0,2.0,88,0.00,,,0.00,207,WeatherCatV1.20B785,2013-10-03 14:06:00,
2013-10-03 10:07:00,62.9,59.3,30.13,East,100,0.0,2.0,88,0.00,,,0.00,204,WeatherCatV1.20B785,2013-10-03 14:07:00,
2013-10-03 10:08:00,63.0,59.4,30.13,East,94,2.0,2.0,88,0.00,,,0.00,200,WeatherCatV1.20B785,2013-10-03 14:08:00,
2013-10-03 10:09:00,63.0,59.1,30.13,East,94,1.0,2.0,87,0.00,,,0.00,200,WeatherCatV1.20B785,2013-10-03 14:09:00,
2013-10-03 10:10:00,63.1,59.2,30.12,East,94,0.0,2.0,87,0.00,,,0.00,202,WeatherCatV1.20B785,2013-10-03 14:10:00,
2013-10-03 10:12:00,63.1,59.2,30.12,East,94,0.0,0.0,87,0.00,,,0.00,204,WeatherCatV1.20B785,2013-10-03 14:12:00,
2013-10-03 10:13:00,63.2,59.3,30.12,East,94,2.0,2.0,87,0.00,,,0.00,204,WeatherCatV1.20B785,2013-10-03 14:13:00,
2013-10-03 10:14:00,63.3,59.4,30.13,ESE,110,0.0,2.0,87,0.00,,,0.00,204,WeatherCatV1.20B785,2013-10-03 14:14:00,
2013-10-03 10:16:00,63.4,59.5,30.13,SE,127,0.0,1.0,87,0.00,,,0.00,211,WeatherCatV1.20B785,2013-10-03 14:16:00,
2013-10-03 10:17:00,63.5,59.6,30.12,SE,127,0.0,0.0,87,0.00,,,0.00,211,WeatherCatV1.20B785,2013-10-03 14:17:00,
2013-10-03 10:18:00,63.6,59.7,30.13,SE,127,0.0,0.0,87,0.00,,,0.00,220,WeatherCatV1.20B785,2013-10-03 14:18:00,
2013-10-03 10:20:00,63.7,59.8,30.12,SE,127,0.0,0.0,87,0.00,,,0.00,225,WeatherCatV1.20B785,2013-10-03 14:20:00,
2013-10-03 10:22:00,63.9,60.0,30.13,SE,127,0.0,0.0,87,0.00,,,0.00,234,WeatherCatV1.20B785,2013-10-03 14:22:00,
2013-10-03 10:23:00,64.0,60.0,30.12,SE,127,0.0,0.0,87,0.00,,,0.00,237,WeatherCatV1.20B785,2013-10-03 14:23:00,
2013-10-03 10:25:00,64.3,60.3,30.12,SW,217,0.0,1.0,87,0.00,,,0.00,244,WeatherCatV1.20B785,2013-10-03 14:25:00,
2013-10-03 10:27:00,64.5,60.2,30.12,SW,220,0.0,1.0,86,0.00,,,0.00,246,WeatherCatV1.20B785,2013-10-03 14:27:00,
2013-10-03 10:28:00,64.7,60.4,30.12,West,276,0.0,0.0,86,0.00,,,0.00,246,WeatherCatV1.20B785,2013-10-03 14:28:00,
2013-10-03 10:29:00,64.8,60.5,30.12,West,277,1.0,1.0,86,0.00,,,0.00,250,WeatherCatV1.20B785,2013-10-03 14:29:00,
2013-10-03 10:30:00,64.9,60.6,30.12,West,277,0.0,1.0,86,0.00,,,0.00,250,WeatherCatV1.20B785,2013-10-03 14:30:00,
2013-10-03 10:33:00,65.2,60.6,30.12,West,277,0.0,0.0,85,0.00,,,0.00,253,WeatherCatV1.20B785,2013-10-03 14:33:00,
2013-10-03 10:35:00,65.4,60.4,30.12,West,277,0.0,1.0,84,0.00,,,0.00,265,WeatherCatV1.20B785,2013-10-03 14:35:00,
2013-10-03 10:38:00,65.8,60.8,30.12,West,277,0.0,0.0,84,0.00,,,0.00,274,WeatherCatV1.20B785,2013-10-03 14:38:00,
2013-10-03 10:39:00,65.8,60.8,30.12,West,277,0.0,0.0,84,0.00,,,0.00,260,WeatherCatV1.20B785,2013-10-03 14:39:00,
2013-10-03 10:40:00,66.1,61.1,30.12,West,277,0.0,1.0,84,0.00,,,0.00,258,WeatherCatV1.20B785,2013-10-03 14:40:00,
2013-10-03 10:41:00,66.1,61.1,30.12,West,277,0.0,1.0,84,0.00,,,0.00,258,WeatherCatV1.20B785,2013-10-03 14:41:00,
2013-10-03 10:43:00,66.4,61.1,30.12,West,277,0.0,0.0,83,0.00,,,0.00,243,WeatherCatV1.20B785,2013-10-03 14:43:00,
2013-10-03 10:44:00,66.6,61.6,30.12,NE,48,1.0,1.0,84,0.00,,,0.00,227,WeatherCatV1.20B785,2013-10-03 14:44:00,
2013-10-03 10:46:00,66.8,61.5,30.12,NE,42,1.0,3.0,83,0.00,,,0.00,213,WeatherCatV1.20B785,2013-10-03 14:46:00,
2013-10-03 10:49:00,67.2,61.5,30.12,NE,42,0.0,0.0,82,0.00,,,0.00,225,WeatherCatV1.20B785,2013-10-03 14:49:00,
2013-10-03 10:50:00,67.2,61.5,30.12,NE,42,0.0,1.0,82,0.00,,,0.00,225,WeatherCatV1.20B785,2013-10-03 14:50:00,
2013-10-03 10:52:00,67.5,61.8,30.12,NE,42,0.0,1.0,82,0.00,,,0.00,367,WeatherCatV1.20B785,2013-10-03 14:52:00,
2013-10-03 10:54:00,67.7,61.7,30.12,NE,49,0.0,0.0,81,0.00,,,0.00,492,WeatherCatV1.20B785,2013-10-03 14:54:00,
2013-10-03 10:55:00,67.9,61.8,30.12,ENE,63,0.0,1.0,81,0.00,,,0.00,417,WeatherCatV1.20B785,2013-10-03 14:55:00,
2013-10-03 10:56:00,68.0,62.3,30.12,ENE,63,0.0,1.0,82,0.00,,,0.00,445,WeatherCatV1.20B785,2013-10-03 14:56:00,
2013-10-03 10:57:00,68.1,62.4,30.12,ENE,71,2.0,2.0,82,0.00,,,0.00,439,WeatherCatV1.20B785,2013-10-03 14:57:00,
2013-10-03 10:58:00,68.3,62.2,30.12,ENE,58,1.0,2.0,81,0.00,,,0.00,452,WeatherCatV1.20B785,2013-10-03 14:58:00,
2013-10-03 10:59:00,68.4,62.3,30.12,NE,44,1.0,2.0,81,0.00,,,0.00,483,WeatherCatV1.20B785,2013-10-03 14:59:00,
2013-10-03 11:01:00,68.7,62.6,30.12,NE,44,0.0,1.0,81,0.00,,,0.00,464,WeatherCatV1.20B785,2013-10-03 15:01:00,
2013-10-03 11:02:00,69.0,62.9,30.12,NE,44,0.0,0.0,81,0.00,,,0.00,510,WeatherCatV1.20B785,2013-10-03 15:02:00,
2013-10-03 11:03:00,69.2,63.1,30.12,NE,44,2.0,2.0,81,0.00,,,0.00,552,WeatherCatV1.20B785,2013-10-03 15:03:00,
2013-10-03 11:04:00,69.4,62.6,30.12,ENE,73,3.0,3.0,79,0.00,,,0.00,552,WeatherCatV1.20B785,2013-10-03 15:04:00,
2013-10-03 11:05:00,69.5,62.7,30.12,ENE,75,2.0,3.0,79,0.00,,,0.00,455,WeatherCatV1.20B785,2013-10-03 15:05:00,
2013-10-03 11:06:00,69.6,62.8,30.12,ENE,75,1.0,3.0,79,0.00,,,0.00,434,WeatherCatV1.20B785,2013-10-03 15:06:00,
2013-10-03 11:07:00,69.9,62.7,30.12,East,79,1.0,2.0,78,0.00,,,0.00,336,WeatherCatV1.20B785,2013-10-03 15:07:00,
2013-10-03 11:09:00,70.0,62.8,30.12,East,79,0.0,2.0,78,0.00,,,0.00,339,WeatherCatV1.20B785,2013-10-03 15:09:00,
2013-10-03 11:10:00,70.1,62.9,30.12,East,79,0.0,1.0,78,0.00,,,0.00,353,WeatherCatV1.20B785,2013-10-03 15:10:00,
2013-10-03 11:11:00,70.1,62.9,30.11,East,79,0.0,1.0,78,0.00,,,0.00,380,WeatherCatV1.20B785,2013-10-03 15:11:00,
2013-10-03 11:12:00,70.3,63.1,30.12,East,84,0.0,2.0,78,0.00,,,0.00,325,WeatherCatV1.20B785,2013-10-03 15:12:00,
2013-10-03 11:13:00,70.3,63.1,30.12,East,84,0.0,2.0,78,0.00,,,0.00,325,WeatherCatV1.20B785,2013-10-03 15:13:00,
2013-10-03 11:15:00,70.5,62.9,30.11,East,84,0.0,1.0,77,0.00,,,0.00,292,WeatherCatV1.20B785,2013-10-03 15:15:00,
2013-10-03 11:16:00,70.7,63.1,30.11,East,83,1.0,2.0,77,0.00,,,0.00,294,WeatherCatV1.20B785,2013-10-03 15:16:00,
2013-10-03 11:18:00,70.9,63.3,30.11,East,83,0.0,0.0,77,0.00,,,0.00,350,WeatherCatV1.20B785,2013-10-03 15:18:00,
2013-10-03 11:20:00,71.1,63.5,30.11,South,171,0.0,1.0,77,0.00,,,0.00,360,WeatherCatV1.20B785,2013-10-03 15:20:00,
2013-10-03 11:21:00,71.2,63.2,30.11,South,171,1.0,1.0,76,0.00,,,0.00,374,WeatherCatV1.20B785,2013-10-03 15:21:00,
2013-10-03 11:23:00,71.3,63.0,30.11,East,100,1.0,2.0,75,0.00,,,0.00,302,WeatherCatV1.20B785,2013-10-03 15:23:00,
2013-10-03 11:25:00,71.5,63.5,30.11,East,100,0.0,1.0,76,0.00,,,0.00,341,WeatherCatV1.20B785,2013-10-03 15:25:00,
2013-10-03 11:26:00,71.5,63.2,30.11,East,100,0.0,1.0,75,0.00,,,0.00,341,WeatherCatV1.20B785,2013-10-03 15:26:00,
2013-10-03 11:28:00,71.7,63.3,30.11,East,100,0.0,0.0,75,0.00,,,0.00,392,WeatherCatV1.20B785,2013-10-03 15:28:00,
2013-10-03 11:29:00,71.8,63.4,30.11,East,100,0.0,0.0,75,0.00,,,0.00,392,WeatherCatV1.20B785,2013-10-03 15:29:00,
2013-10-03 11:31:00,72.0,64.0,30.11,East,100,1.0,2.0,76,0.00,,,0.00,520,WeatherCatV1.20B785,2013-10-03 15:31:00,
2013-10-03 11:33:00,72.4,63.6,30.11,ESE,111,0.0,1.0,74,0.00,,,0.00,643,WeatherCatV1.20B785,2013-10-03 15:33:00,
2013-10-03 11:34:00,72.5,63.7,30.11,ESE,111,0.0,0.0,74,0.00,,,0.00,626,WeatherCatV1.20B785,2013-10-03 15:34:00,
2013-10-03 11:36:00,72.9,64.1,30.11,NE,40,1.0,2.0,74,0.00,,,0.00,522,WeatherCatV1.20B785,2013-10-03 15:36:00,
2013-10-03 11:37:00,73.0,64.2,30.11,NE,40,0.0,2.0,74,0.00,,,0.00,492,WeatherCatV1.20B785,2013-10-03 15:37:00,
2013-10-03 11:38:00,73.3,64.5,30.11,NE,40,0.0,0.0,74,0.00,,,0.00,373,WeatherCatV1.20B785,2013-10-03 15:38:00,
2013-10-03 11:39:00,73.4,64.6,30.11,NE,41,0.0,1.0,74,0.00,,,0.00,417,WeatherCatV1.20B785,2013-10-03 15:39:00,
2013-10-03 11:43:00,74.0,64.8,30.11,NE,42,1.0,1.0,73,0.00,,,0.00,315,WeatherCatV1.20B785,2013-10-03 15:43:00,
2013-10-03 11:44:00,74.2,64.6,30.11,NNE,22,1.0,1.0,72,0.00,,,0.00,371,WeatherCatV1.20B785,2013-10-03 15:44:00,
2013-10-03 11:45:00,74.4,64.4,30.10,NNE,17,0.0,1.0,71,0.00,,,0.00,468,WeatherCatV1.20B785,2013-10-03 15:45:00,
2013-10-03 11:48:00,74.8,64.8,30.10,North,356,0.0,2.0,71,0.00,,,0.00,617,WeatherCatV1.20B785,2013-10-03 15:48:00,
2013-10-03 11:49:00,75.0,64.9,30.10,North,352,0.0,1.0,71,0.00,,,0.00,526,WeatherCatV1.20B785,2013-10-03 15:49:00,
2013-10-03 11:50:00,75.1,65.0,30.10,North,352,0.0,1.0,71,0.00,,,0.00,526,WeatherCatV1.20B785,2013-10-03 15:50:00,
2013-10-03 11:52:00,75.4,64.9,30.10,NNW,333,1.0,1.0,70,0.00,,,0.00,527,WeatherCatV1.20B785,2013-10-03 15:52:00,
2013-10-03 11:53:00,75.6,64.7,30.10,West,263,0.0,2.0,69,0.00,,,0.00,533,WeatherCatV1.20B785,2013-10-03 15:53:00,
2013-10-03 11:54:00,75.8,64.9,30.10,West,263,0.0,2.0,69,0.00,,,0.00,455,WeatherCatV1.20B785,2013-10-03 15:54:00,
2013-10-03 11:55:00,76.0,64.7,30.10,West,266,0.0,1.0,68,0.00,,,0.00,471,WeatherCatV1.20B785,2013-10-03 15:55:00,
2013-10-03 11:56:00,76.0,64.7,30.10,NW,316,0.0,1.0,68,0.00,,,0.00,471,WeatherCatV1.20B785,2013-10-03 15:56:00,
2013-10-03 11:58:00,76.3,64.9,30.10,South,173,0.0,1.0,68,0.00,,,0.00,689,WeatherCatV1.20B785,2013-10-03 15:58:00,
2013-10-03 11:59:00,76.4,65.0,30.10,SSW,204,0.0,1.0,68,0.00,,,0.00,691,WeatherCatV1.20B785,2013-10-03 15:59:00,
2013-10-03 12:01:00,76.7,65.3,30.10,West,277,1.0,2.0,68,0.00,,,0.00,719,WeatherCatV1.20B785,2013-10-03 16:01:00,
2013-10-03 12:04:00,77.1,65.3,30.10,NW,306,0.0,1.0,67,0.00,,,0.00,682,WeatherCatV1.20B785,2013-10-03 16:04:00,
2013-10-03 12:05:00,77.5,65.2,30.10,NNE,31,0.0,3.0,66,0.00,,,0.00,661,WeatherCatV1.20B785,2013-10-03 16:05:00,
2013-10-03 12:06:00,77.5,65.2,30.10,NE,54,1.0,3.0,66,0.00,,,0.00,661,WeatherCatV1.20B785,2013-10-03 16:06:00,
2013-10-03 12:09:00,78.1,65.3,30.10,East,83,1.0,3.0,65,0.00,,,0.00,605,WeatherCatV1.20B785,2013-10-03 16:09:00,
2013-10-03 12:10:00,78.2,65.4,30.09,East,99,1.0,3.0,65,0.00,,,0.00,636,WeatherCatV1.20B785,2013-10-03 16:10:00,
2013-10-03 12:11:00,78.3,65.1,30.09,East,98,3.0,5.0,64,0.00,,,0.00,650,WeatherCatV1.20B785,2013-10-03 16:11:00,
2013-10-03 12:14:00,78.4,64.7,30.09,ESE,122,1.0,6.0,63,0.00,,,0.00,582,WeatherCatV1.20B785,2013-10-03 16:14:00,
2013-10-03 12:15:00,78.4,64.7,30.09,NNE,17,1.0,6.0,63,0.00,,,0.00,663,WeatherCatV1.20B785,2013-10-03 16:15:00,
2013-10-03 12:16:00,78.4,64.7,30.09,NE,34,2.0,2.0,63,0.00,,,0.00,689,WeatherCatV1.20B785,2013-10-03 16:16:00,
2013-10-03 12:20:00,78.4,64.7,30.09,SSE,166,2.0,2.0,63,0.00,,,0.00,485,WeatherCatV1.20B785,2013-10-03 16:20:00,
2013-10-03 12:22:00,78.4,65.2,30.09,ENE,74,1.0,2.0,64,0.00,,,0.00,466,WeatherCatV1.20B785,2013-10-03 16:22:00,
2013-10-03 12:25:00,78.5,65.3,30.09,ENE,70,1.0,2.0,64,0.00,,,0.00,397,WeatherCatV1.20B785,2013-10-03 16:25:00,
2013-10-03 12:27:00,78.6,64.9,30.09,ENE,74,0.0,3.0,63,0.00,,,0.00,547,WeatherCatV1.20B785,2013-10-03 16:27:00,
2013-10-03 12:28:00,78.7,65.5,30.09,ENE,59,1.0,1.0,64,0.00,,,0.00,541,WeatherCatV1.20B785,2013-10-03 16:28:00,
2013-10-03 12:30:00,79.0,65.8,30.09,NW,306,3.0,3.0,64,0.00,,,0.00,497,WeatherCatV1.20B785,2013-10-03 16:30:00,
2013-10-03 12:32:00,79.2,65.5,30.08,NW,320,0.0,4.0,63,0.00,,,0.00,436,WeatherCatV1.20B785,2013-10-03 16:32:00,
2013-10-03 12:33:00,79.2,65.5,30.09,NE,56,1.0,3.0,63,0.00,,,0.00,436,WeatherCatV1.20B785,2013-10-03 16:33:00,
2013-10-03 12:34:00,79.4,65.2,30.08,East,81,3.0,3.0,62,0.00,,,0.00,441,WeatherCatV1.20B785,2013-10-03 16:34:00,
2013-10-03 12:35:00,79.6,65.9,30.09,NE,42,0.0,3.0,63,0.00,,,0.00,501,WeatherCatV1.20B785,2013-10-03 16:35:00,
2013-10-03 12:38:00,79.9,66.2,30.09,NNE,30,0.0,2.0,63,0.00,,,0.00,501,WeatherCatV1.20B785,2013-10-03 16:38:00,
2013-10-03 12:39:00,80.1,65.9,30.08,WNW,298,1.0,2.0,62,0.00,,,0.00,441,WeatherCatV1.20B785,2013-10-03 16:39:00,
2013-10-03 12:40:00,80.2,65.5,30.08,ESE,102,2.0,2.0,61,0.00,,,0.00,461,WeatherCatV1.20B785,2013-10-03 16:40:00,
2013-10-03 12:43:00,80.3,65.6,30.08,ENE,59,2.0,3.0,61,0.00,,,0.00,404,WeatherCatV1.20B785,2013-10-03 16:43:00,
2013-10-03 12:44:00,80.3,65.1,30.08,ENE,76,1.0,3.0,60,0.00,,,0.00,397,WeatherCatV1.20B785,2013-10-03 16:44:00,
2013-10-03 12:45:00,80.3,65.1,30.08,ENE,77,1.0,3.0,60,0.00,,,0.00,397,WeatherCatV1.20B785,2013-10-03 16:45:00,
2013-10-03 12:46:00,80.3,65.1,30.08,ESE,106,0.0,2.0,60,0.00,,,0.00,457,WeatherCatV1.20B785,2013-10-03 16:46:00,
2013-10-03 12:48:00,80.0,64.8,30.08,East,90,0.0,2.0,60,0.00,,,0.00,457,WeatherCatV1.20B785,2013-10-03 16:48:00,
2013-10-03 12:49:00,79.8,65.1,30.08,SSE,152,0.0,1.0,61,0.00,,,0.00,425,WeatherCatV1.20B785,2013-10-03 16:49:00,
2013-10-03 12:50:00,79.8,65.1,30.08,SE,142,0.0,1.0,61,0.00,,,0.00,376,WeatherCatV1.20B785,2013-10-03 16:50:00,
2013-10-03 12:52:00,79.6,64.9,30.08,East,98,3.0,5.0,61,0.00,,,0.00,366,WeatherCatV1.20B785,2013-10-03 16:52:00,
2013-10-03 12:53:00,79.5,64.8,30.08,East,85,1.0,3.0,61,0.00,,,0.00,404,WeatherCatV1.20B785,2013-10-03 16:53:00,
2013-10-03 12:54:00,79.4,65.2,30.08,ENE,73,3.0,3.0,62,0.00,,,0.00,404,WeatherCatV1.20B785,2013-10-03 16:54:00,
2013-10-03 12:55:00,79.4,64.8,30.08,SE,131,1.0,3.0,61,0.00,,,0.00,403,WeatherCatV1.20B785,2013-10-03 16:55:00,
2013-10-03 12:56:00,79.3,64.7,30.08,SE,144,0.0,1.0,61,0.00,,,0.00,417,WeatherCatV1.20B785,2013-10-03 16:56:00,
2013-10-03 12:58:00,79.3,65.6,30.08,ENE,63,2.0,4.0,63,0.00,,,0.00,320,WeatherCatV1.20B785,2013-10-03 16:58:00,
2013-10-03 12:59:00,79.3,65.1,30.08,ESE,108,5.0,6.0,62,0.00,,,0.00,329,WeatherCatV1.20B785,2013-10-03 16:59:00,
2013-10-03 13:00:00,79.4,65.2,30.08,East,98,1.0,6.0,62,0.00,,,0.00,309,WeatherCatV1.20B785,2013-10-03 17:00:00,
2013-10-03 13:02:00,79.4,65.2,30.08,ESE,103,1.0,6.0,62,0.00,,,0.00,325,WeatherCatV1.20B785,2013-10-03 17:02:00,
2013-10-03 13:03:00,79.4,65.2,30.08,SSE,158,2.0,6.0,62,0.00,,,0.00,378,WeatherCatV1.20B785,2013-10-03 17:03:00,
2013-10-03 13:04:00,79.3,64.7,30.08,SE,146,0.0,2.0,61,0.00,,,0.00,378,WeatherCatV1.20B785,2013-10-03 17:04:00,
2013-10-03 13:05:00,79.3,64.7,30.08,SE,141,0.0,1.0,61,0.00,,,0.00,550,WeatherCatV1.20B785,2013-10-03 17:05:00,
2013-10-03 13:08:00,79.2,65.0,30.08,ESE,103,3.0,3.0,62,0.00,,,0.00,457,WeatherCatV1.20B785,2013-10-03 17:08:00,
2013-10-03 13:09:00,79.2,65.5,30.08,SE,146,1.0,3.0,63,0.00,,,0.00,457,WeatherCatV1.20B785,2013-10-03 17:09:00,
2013-10-03 13:10:00,79.2,65.0,30.08,ENE,70,1.0,3.0,62,0.00,,,0.00,796,WeatherCatV1.20B785,2013-10-03 17:10:00,
2013-10-03 13:13:00,79.6,65.4,30.07,SE,141,0.0,3.0,62,0.00,,,0.00,788,WeatherCatV1.20B785,2013-10-03 17:13:00,
2013-10-03 13:14:00,79.8,65.6,30.07,ESE,110,1.0,2.0,62,0.00,,,0.00,788,WeatherCatV1.20B785,2013-10-03 17:14:00,
2013-10-03 13:15:00,80.0,65.8,30.07,SSE,163,2.0,2.0,62,0.00,,,0.00,719,WeatherCatV1.20B785,2013-10-03 17:15:00,
2013-10-03 13:16:00,80.1,65.4,30.07,SE,133,1.0,2.0,61,0.00,,,0.00,719,WeatherCatV1.20B785,2013-10-03 17:16:00,
2013-10-03 13:18:00,80.3,65.6,30.07,WSW,237,0.0,2.0,61,0.00,,,0.00,608,WeatherCatV1.20B785,2013-10-03 17:18:00,
2013-10-03 13:19:00,80.3,65.6,30.07,ESE,102,2.0,5.0,61,0.00,,,0.00,754,WeatherCatV1.20B785,2013-10-03 17:19:00,
2013-10-03 13:20:00,80.5,65.8,30.07,East,92,1.0,5.0,61,0.00,,,0.00,763,WeatherCatV1.20B785,2013-10-03 17:20:00,
2013-10-03 13:21:00,80.5,65.8,30.07,East,92,0.0,2.0,61,0.00,,,0.00,763,WeatherCatV1.20B785,2013-10-03 17:21:00,
2013-10-03 13:23:00,80.6,65.4,30.07,ESE,104,1.0,7.0,60,0.00,,,0.00,367,WeatherCatV1.20B785,2013-10-03 17:23:00,
2013-10-03 13:24:00,80.6,65.4,30.07,ESE,109,2.0,6.0,60,0.00,,,0.00,367,WeatherCatV1.20B785,2013-10-03 17:24:00,
2013-10-03 13:26:00,80.5,65.8,30.07,East,84,1.0,4.0,61,0.00,,,0.00,274,WeatherCatV1.20B785,2013-10-03 17:26:00,
2013-10-03 13:27:00,80.3,65.6,30.07,NNE,17,0.0,4.0,61,0.00,,,0.00,297,WeatherCatV1.20B785,2013-10-03 17:27:00,
2013-10-03 13:28:00,80.2,65.5,30.06,South,174,0.0,2.0,61,0.00,,,0.00,279,WeatherCatV1.20B785,2013-10-03 17:28:00,
2013-10-03 13:30:00,80.1,65.9,30.06,South,173,0.0,2.0,62,0.00,,,0.00,274,WeatherCatV1.20B785,2013-10-03 17:30:00,
2013-10-03 13:31:00,80.1,66.3,30.06,SSE,151,0.0,1.0,63,0.00,,,0.00,271,WeatherCatV1.20B785,2013-10-03 17:31:00,
2013-10-03 13:32:00,80.1,65.9,30.06,East,80,0.0,2.0,62,0.00,,,0.00,269,WeatherCatV1.20B785,2013-10-03 17:32:00,
2013-10-03 13:34:00,80.1,65.4,30.06,SSE,150,0.0,1.0,61,0.00,,,0.00,278,WeatherCatV1.20B785,2013-10-03 17:34:00,
2013-10-03 13:35:00,80.1,65.4,30.06,SE,141,0.0,1.0,61,0.00,,,0.00,278,WeatherCatV1.20B785,2013-10-03 17:35:00,
2013-10-03 13:37:00,80.2,66.0,30.06,East,93,2.0,2.0,62,0.00,,,0.00,309,WeatherCatV1.20B785,2013-10-03 17:37:00,
2013-10-03 13:38:00,80.2,66.0,30.06,ENE,69,0.0,3.0,62,0.00,,,0.00,315,WeatherCatV1.20B785,2013-10-03 17:38:00,
2013-10-03 13:39:00,80.3,65.6,30.06,East,99,5.0,5.0,61,0.00,,,0.00,301,WeatherCatV1.20B785,2013-10-03 17:39:00,
2013-10-03 13:40:00,80.2,65.5,30.06,East,92,3.0,5.0,61,0.00,,,0.00,301,WeatherCatV1.20B785,2013-10-03 17:40:00,
2013-10-03 13:42:00,80.2,65.0,30.06,East,88,2.0,5.0,60,0.00,,,0.00,301,WeatherCatV1.20B785,2013-10-03 17:42:00,
2013-10-03 13:43:00,80.2,65.5,30.06,ESE,106,2.0,5.0,61,0.00,,,0.00,301,WeatherCatV1.20B785,2013-10-03 17:43:00,
2013-10-03 13:45:00,80.2,65.5,30.06,ENE,77,1.0,3.0,61,0.00,,,0.00,311,WeatherCatV1.20B785,2013-10-03 17:45:00,
2013-10-03 13:46:00,80.1,65.4,30.06,ENE,78,0.0,2.0,61,0.00,,,0.00,290,WeatherCatV1.20B785,2013-10-03 17:46:00,
2013-10-03 13:47:00,80.1,65.4,30.06,East,99,2.0,2.0,61,0.00,,,0.00,290,WeatherCatV1.20B785,2013-10-03 17:47:00,
2013-10-03 13:48:00,80.1,65.4,30.06,East,101,1.0,5.0,61,0.00,,,0.00,279,WeatherCatV1.20B785,2013-10-03 17:48:00,
2013-10-03 13:50:00,80.0,65.3,30.06,ESE,110,1.0,2.0,61,0.00,,,0.00,322,WeatherCatV1.20B785,2013-10-03 17:50:00,
2013-10-03 13:52:00,80.0,65.3,30.06,ENE,63,3.0,4.0,61,0.00,,,0.00,366,WeatherCatV1.20B785,2013-10-03 17:52:00,
2013-10-03 13:54:00,79.9,65.2,30.06,SE,140,0.0,4.0,61,0.00,,,0.00,295,WeatherCatV1.20B785,2013-10-03 17:54:00,
2013-10-03 13:55:00,79.8,65.1,30.06,ESE,119,0.0,1.0,61,0.00,,,0.00,292,WeatherCatV1.20B785,2013-10-03 17:55:00,
2013-10-03 13:56:00,79.8,65.1,30.06,ESE,119,0.0,0.0,61,0.00,,,0.00,292,WeatherCatV1.20B785,2013-10-03 17:56:00,
2013-10-03 13:57:00,79.9,65.2,30.05,ESE,117,0.0,0.0,61,0.00,,,0.00,318,WeatherCatV1.20B785,2013-10-03 17:57:00,
2013-10-03 13:58:00,79.9,65.2,30.06,East,95,1.0,1.0,61,0.00,,,0.00,318,WeatherCatV1.20B785,2013-10-03 17:58:00,
2013-10-03 14:01:00,80.2,65.5,30.05,ESE,102,1.0,2.0,61,0.00,,,0.00,371,WeatherCatV1.20B785,2013-10-03 18:01:00,
2013-10-03 14:02:00,80.3,65.6,30.05,ENE,73,3.0,7.0,61,0.00,,,0.00,371,WeatherCatV1.20B785,2013-10-03 18:02:00,
2013-10-03 14:03:00,80.4,65.2,30.06,East,99,2.0,7.0,60,0.00,,,0.00,371,WeatherCatV1.20B785,2013-10-03 18:03:00,
2013-10-03 14:06:00,80.6,65.4,30.05,East,88,3.0,4.0,60,0.00,,,0.00,329,WeatherCatV1.20B785,2013-10-03 18:06:00,
2013-10-03 14:07:00,80.7,65.0,30.05,ESE,112,5.0,5.0,59,0.00,,,0.00,346,WeatherCatV1.20B785,2013-10-03 18:07:00,
2013-10-03 14:08:00,80.7,65.5,30.05,East,98,1.0,5.0,60,0.00,,,0.00,348,WeatherCatV1.20B785,2013-10-03 18:08:00,
2013-10-03 14:10:00,80.8,65.1,30.05,East,99,2.0,5.0,59,0.00,,,0.00,311,WeatherCatV1.20B785,2013-10-03 18:10:00,
2013-10-03 14:11:00,80.8,65.1,30.05,ESE,102,2.0,5.0,59,0.00,,,0.00,285,WeatherCatV1.20B785,2013-10-03 18:11:00,
2013-10-03 14:13:00,80.8,65.1,30.05,ENE,61,2.0,5.0,59,0.00,,,0.00,313,WeatherCatV1.20B785,2013-10-03 18:13:00,
2013-10-03 14:14:00,80.8,65.6,30.05,East,87,2.0,5.0,60,0.00,,,0.00,265,WeatherCatV1.20B785,2013-10-03 18:14:00,
2013-10-03 14:15:00,80.8,65.1,30.05,East,98,1.0,3.0,59,0.00,,,0.00,241,WeatherCatV1.20B785,2013-10-03 18:15:00,
2013-10-03 14:16:00,80.7,65.0,30.05,North,356,1.0,3.0,59,0.00,,,0.00,241,WeatherCatV1.20B785,2013-10-03 18:16:00,
2013-10-03 14:18:00,80.7,65.0,30.05,NNE,30,2.0,3.0,59,0.00,,,0.00,248,WeatherCatV1.20B785,2013-10-03 18:18:00,
2013-10-03 14:19:00,80.6,64.9,30.05,NE,36,1.0,2.0,59,0.00,,,0.00,265,WeatherCatV1.20B785,2013-10-03 18:19:00,
2013-10-03 14:21:00,80.5,64.8,30.05,ESE,113,1.0,2.0,59,0.00,,,0.00,183,WeatherCatV1.20B785,2013-10-03 18:21:00,
2013-10-03 14:23:00,80.5,64.8,30.05,South,173,1.0,2.0,59,0.00,,,0.00,585,WeatherCatV1.20B785,2013-10-03 18:23:00,
2013-10-03 14:24:00,80.4,64.7,30.05,South,173,0.0,2.0,59,0.00,,,0.00,585,WeatherCatV1.20B785,2013-10-03 18:24:00,
2013-10-03 14:25:00,80.5,65.3,30.05,East,79,2.0,3.0,60,0.00,,,0.00,243,WeatherCatV1.20B785,2013-10-03 18:25:00,
2013-10-03 14:26:00,80.5,65.3,30.05,East,95,1.0,3.0,60,0.00,,,0.00,243,WeatherCatV1.20B785,2013-10-03 18:26:00,
2013-10-03 14:27:00,80.6,65.4,30.05,East,95,1.0,3.0,60,0.00,,,0.00,243,WeatherCatV1.20B785,2013-10-03 18:27:00,
2013-10-03 14:28:00,80.6,64.9,30.05,East,89,3.0,5.0,59,0.00,,,0.00,246,WeatherCatV1.20B785,2013-10-03 18:28:00,
2013-10-03 14:30:00,80.7,65.5,30.05,ESE,118,0.0,4.0,60,0.00,,,0.00,258,WeatherCatV1.20B785,2013-10-03 18:30:00,
2013-10-03 14:31:00,80.7,65.5,30.05,ESE,118,0.0,4.0,60,0.00,,,0.00,258,WeatherCatV1.20B785,2013-10-03 18:31:00,
2013-10-03 14:32:00,80.8,65.6,30.04,ENE,68,1.0,2.0,60,0.00,,,0.00,332,WeatherCatV1.20B785,2013-10-03 18:32:00,
2013-10-03 14:33:00,80.9,65.2,30.05,NE,56,0.0,2.0,59,0.00,,,0.00,332,WeatherCatV1.20B785,2013-10-03 18:33:00,
2013-10-03 14:36:00,81.1,64.9,30.04,SE,133,0.0,1.0,58,0.00,,,0.00,432,WeatherCatV1.20B785,2013-10-03 18:36:00,
2013-10-03 14:37:00,81.1,64.9,30.04,SE,133,0.0,0.0,58,0.00,,,0.00,443,WeatherCatV1.20B785,2013-10-03 18:37:00,
2013-10-03 14:38:00,81.3,64.6,30.04,East,100,0.0,1.0,57,0.00,,,0.00,376,WeatherCatV1.20B785,2013-10-03 18:38:00,
2013-10-03 14:39:00,81.4,64.7,30.04,East,100,0.0,1.0,57,0.00,,,0.00,468,WeatherCatV1.20B785,2013-10-03 18:39:00,
2013-10-03 14:41:00,81.7,65.0,30.04,WNW,298,2.0,3.0,57,0.00,,,0.00,432,WeatherCatV1.20B785,2013-10-03 18:41:00,
2013-10-03 14:42:00,81.9,65.6,30.04,West,271,3.0,3.0,58,0.00,,,0.00,482,WeatherCatV1.20B785,2013-10-03 18:42:00,
2013-10-03 14:43:00,82.1,65.3,30.04,West,266,1.0,3.0,57,0.00,,,0.00,497,WeatherCatV1.20B785,2013-10-03 18:43:00,
2013-10-03 14:44:00,82.2,65.4,30.04,WNW,282,1.0,2.0,57,0.00,,,0.00,497,WeatherCatV1.20B785,2013-10-03 18:44:00,
2013-10-03 14:46:00,82.6,64.8,30.04,West,272,2.0,3.0,55,0.00,,,0.00,619,WeatherCatV1.20B785,2013-10-03 18:46:00,
2013-10-03 14:47:00,82.7,65.9,30.04,WSW,256,2.0,3.0,57,0.00,,,0.00,654,WeatherCatV1.20B785,2013-10-03 18:47:00,
2013-10-03 14:48:00,82.9,65.6,30.04,NNW,331,1.0,4.0,56,0.00,,,0.00,654,WeatherCatV1.20B785,2013-10-03 18:48:00,
2013-10-03 14:49:00,83.2,65.3,30.04,NNW,331,0.0,0.0,55,0.00,,,0.00,257,WeatherCatV1.20B785,2013-10-03 18:49:00,
2013-10-03 14:50:00,83.2,65.3,30.04,NW,311,1.0,2.0,55,0.00,,,0.00,257,WeatherCatV1.20B785,2013-10-03 18:50:00,
2013-10-03 14:51:00,83.4,65.0,30.04,WNW,291,0.0,2.0,54,0.00,,,0.00,271,WeatherCatV1.20B785,2013-10-03 18:51:00,
2013-10-03 14:52:00,83.4,65.0,30.04,WNW,291,0.0,1.0,54,0.00,,,0.00,316,WeatherCatV1.20B785,2013-10-03 18:52:00,
2013-10-03 14:53:00,83.4,65.0,30.04,WNW,300,0.0,1.0,54,0.00,,,0.00,316,WeatherCatV1.20B785,2013-10-03 18:53:00,
2013-10-03 14:55:00,83.4,64.4,30.04,East,97,2.0,2.0,53,0.00,,,0.00,234,WeatherCatV1.20B785,2013-10-03 18:55:00,
2013-10-03 14:57:00,83.2,64.3,30.04,ESE,104,1.0,3.0,53,0.00,,,0.00,248,WeatherCatV1.20B785,2013-10-03 18:57:00,
2013-10-03 14:59:00,82.8,64.4,30.04,ESE,102,0.0,4.0,54,0.00,,,0.00,211,WeatherCatV1.20B785,2013-10-03 18:59:00,
2013-10-03 15:00:00,82.5,64.2,30.04,NE,50,3.0,3.0,54,0.00,,,0.00,207,WeatherCatV1.20B785,2013-10-03 19:00:00,
2013-10-03 15:01:00,82.5,64.2,30.04,NE,48,1.0,3.0,54,0.00,,,0.00,207,WeatherCatV1.20B785,2013-10-03 19:01:00,
2013-10-03 15:03:00,82.3,64.0,30.04,NE,46,0.0,2.0,54,0.00,,,0.00,246,WeatherCatV1.20B785,2013-10-03 19:03:00,
2013-10-03 15:04:00,82.2,64.9,30.04,NNE,31,1.0,1.0,56,0.00,,,0.00,287,WeatherCatV1.20B785,2013-10-03 19:04:00,
2013-10-03 15:05:00,82.1,64.3,30.04,East,86,2.0,3.0,55,0.00,,,0.00,283,WeatherCatV1.20B785,2013-10-03 19:05:00,
2013-10-03 15:07:00,82.1,63.8,30.04,East,88,0.0,2.0,54,0.00,,,0.00,274,WeatherCatV1.20B785,2013-10-03 19:07:00,
2013-10-03 15:08:00,82.1,64.8,30.04,East,88,0.0,0.0,56,0.00,,,0.00,274,WeatherCatV1.20B785,2013-10-03 19:08:00,
2013-10-03 15:09:00,82.2,63.9,30.03,ENE,58,0.0,1.0,54,0.00,,,0.00,385,WeatherCatV1.20B785,2013-10-03 19:09:00,
2013-10-03 15:10:00,82.3,64.0,30.03,West,269,2.0,2.0,54,0.00,,,0.00,526,WeatherCatV1.20B785,2013-10-03 19:10:00,
2013-10-03 15:13:00,82.5,64.2,30.03,West,274,0.0,3.0,54,0.00,,,0.00,626,WeatherCatV1.20B785,2013-10-03 19:13:00,
2013-10-03 15:14:00,82.7,64.9,30.03,West,274,0.0,0.0,55,0.00,,,0.00,520,WeatherCatV1.20B785,2013-10-03 19:14:00,
2013-10-03 15:15:00,82.9,65.0,30.03,SE,130,0.0,1.0,55,0.00,,,0.00,478,WeatherCatV1.20B785,2013-10-03 19:15:00,
2013-10-03 15:16:00,83.0,64.1,30.03,SE,129,0.0,1.0,53,0.00,,,0.00,443,WeatherCatV1.20B785,2013-10-03 19:16:00,
2013-10-03 15:18:00,83.1,64.2,30.03,SE,125,2.0,2.0,53,0.00,,,0.00,448,WeatherCatV1.20B785,2013-10-03 19:18:00,
2013-10-03 15:19:00,83.1,64.2,30.03,North,7,0.0,2.0,53,0.00,,,0.00,534,WeatherCatV1.20B785,2013-10-03 19:19:00,
2013-10-03 15:20:00,83.1,64.2,30.03,North,7,0.0,1.0,53,0.00,,,0.00,534,WeatherCatV1.20B785,2013-10-03 19:20:00,
2013-10-03 15:21:00,83.2,64.3,30.03,ENE,69,2.0,2.0,53,0.00,,,0.00,555,WeatherCatV1.20B785,2013-10-03 19:21:00,
2013-10-03 15:24:00,83.2,63.7,30.03,East,91,0.0,2.0,52,0.00,,,0.00,613,WeatherCatV1.20B785,2013-10-03 19:24:00,
2013-10-03 15:25:00,83.1,63.6,30.03,East,91,1.0,2.0,52,0.00,,,0.00,438,WeatherCatV1.20B785,2013-10-03 19:25:00,
2013-10-03 15:26:00,83.0,63.5,30.03,South,188,1.0,2.0,52,0.00,,,0.00,450,WeatherCatV1.20B785,2013-10-03 19:26:00,
2013-10-03 15:27:00,82.9,63.4,30.02,SE,130,0.0,2.0,52,0.00,,,0.00,478,WeatherCatV1.20B785,2013-10-03 19:27:00,
2013-10-03 15:29:00,82.8,63.3,30.03,SE,128,0.0,1.0,52,0.00,,,0.00,387,WeatherCatV1.20B785,2013-10-03 19:29:00,
2013-10-03 15:30:00,82.8,63.3,30.02,SE,128,0.0,1.0,52,0.00,,,0.00,566,WeatherCatV1.20B785,2013-10-03 19:30:00,
2013-10-03 15:31:00,82.8,64.4,30.03,WSW,254,2.0,2.0,54,0.00,,,0.00,566,WeatherCatV1.20B785,2013-10-03 19:31:00,
2013-10-03 15:32:00,82.8,64.4,30.03,WNW,300,1.0,2.0,54,0.00,,,0.00,594,WeatherCatV1.20B785,2013-10-03 19:32:00,
2013-10-03 15:33:00,82.9,63.4,30.03,WNW,298,1.0,1.0,52,0.00,,,0.00,608,WeatherCatV1.20B785,2013-10-03 19:33:00,
2013-10-03 15:34:00,83.0,63.5,30.02,East,93,0.0,2.0,52,0.00,,,0.00,573,WeatherCatV1.20B785,2013-10-03 19:34:00,
2013-10-03 15:35:00,83.1,63.1,30.02,SE,128,1.0,2.0,51,0.00,,,0.00,413,WeatherCatV1.20B785,2013-10-03 19:35:00,
2013-10-03 15:36:00,83.1,63.1,30.02,East,88,1.0,2.0,51,0.00,,,0.00,418,WeatherCatV1.20B785,2013-10-03 19:36:00,
2013-10-03 15:37:00,83.2,63.2,30.02,SE,127,1.0,2.0,51,0.00,,,0.00,418,WeatherCatV1.20B785,2013-10-03 19:37:00,
2013-10-03 15:38:00,83.2,63.2,30.02,SE,126,0.0,1.0,51,0.00,,,0.00,459,WeatherCatV1.20B785,2013-10-03 19:38:00,
2013-10-03 15:39:00,83.3,64.9,30.02,SW,226,0.0,2.0,54,0.00,,,0.00,399,WeatherCatV1.20B785,2013-10-03 19:39:00,
2013-10-03 15:40:00,83.4,63.9,30.03,WNW,294,0.0,2.0,52,0.00,,,0.00,406,WeatherCatV1.20B785,2013-10-03 19:40:00,
2013-10-03 15:42:00,83.5,64.0,30.03,WNW,296,1.0,1.0,52,0.00,,,0.00,387,WeatherCatV1.20B785,2013-10-03 19:42:00,
2013-10-03 15:43:00,83.6,64.1,30.02,WNW,300,0.0,1.0,52,0.00,,,0.00,299,WeatherCatV1.20B785,2013-10-03 19:43:00,
2013-10-03 15:44:00,83.6,63.5,30.02,WNW,300,0.0,1.0,51,0.00,,,0.00,206,WeatherCatV1.20B785,2013-10-03 19:44:00,
2013-10-03 15:45:00,83.7,64.7,30.02,WNW,298,0.0,2.0,53,0.00,,,0.00,206,WeatherCatV1.20B785,2013-10-03 19:45:00,
2013-10-03 15:46:00,83.7,64.7,30.02,WNW,298,1.0,2.0,53,0.00,,,0.00,475,WeatherCatV1.20B785,2013-10-03 19:46:00,
2013-10-03 15:47:00,83.8,64.8,30.02,North,7,0.0,1.0,53,0.00,,,0.00,517,WeatherCatV1.20B785,2013-10-03 19:47:00,
2013-10-03 15:49:00,84.2,65.2,30.02,North,355,2.0,2.0,53,0.00,,,0.00,529,WeatherCatV1.20B785,2013-10-03 19:49:00,
2013-10-03 15:50:00,84.4,64.3,30.02,WNW,288,0.0,2.0,51,0.00,,,0.00,527,WeatherCatV1.20B785,2013-10-03 19:50:00,
2013-10-03 15:51:00,84.4,64.3,30.02,WNW,288,0.0,2.0,51,0.00,,,0.00,512,WeatherCatV1.20B785,2013-10-03 19:51:00,
2013-10-03 15:53:00,84.6,64.4,30.02,SE,143,0.0,1.0,51,0.00,,,0.00,522,WeatherCatV1.20B785,2013-10-03 19:53:00,
2013-10-03 15:54:00,84.8,64.1,30.02,SE,143,0.0,2.0,50,0.00,,,0.00,504,WeatherCatV1.20B785,2013-10-03 19:54:00,
2013-10-03 15:56:00,84.9,64.2,30.02,NE,35,2.0,3.0,50,0.00,,,0.00,476,WeatherCatV1.20B785,2013-10-03 19:56:00,
2013-10-03 15:58:00,84.8,64.1,30.02,SSE,150,0.0,2.0,50,0.00,,,0.00,513,WeatherCatV1.20B785,2013-10-03 19:58:00,
2013-10-03 15:59:00,84.8,64.1,30.02,SSE,150,0.0,1.0,50,0.00,,,0.00,513,WeatherCatV1.20B785,2013-10-03 19:59:00,
2013-10-03 16:01:00,84.7,64.0,30.02,WNW,298,0.0,2.0,50,0.00,,,0.00,225,WeatherCatV1.20B785,2013-10-03 20:01:00,
2013-10-03 16:04:00,84.7,64.5,30.02,NW,311,0.0,1.0,51,0.00,,,0.00,176,WeatherCatV1.20B785,2013-10-03 20:04:00,
2013-10-03 16:06:00,84.6,63.3,30.02,SE,133,1.0,3.0,49,0.00,,,0.00,188,WeatherCatV1.20B785,2013-10-03 20:06:00,
2013-10-03 16:07:00,84.5,64.3,30.02,West,270,1.0,3.0,51,0.00,,,0.00,178,WeatherCatV1.20B785,2013-10-03 20:07:00,
2013-10-03 16:09:00,83.9,63.2,30.02,SE,146,0.0,3.0,50,0.00,,,0.00,213,WeatherCatV1.20B785,2013-10-03 20:09:00,
2013-10-03 16:11:00,83.6,63.0,30.02,SE,139,0.0,1.0,50,0.00,,,0.00,221,WeatherCatV1.20B785,2013-10-03 20:11:00,
2013-10-03 16:12:00,83.4,63.9,30.02,ESE,105,2.0,2.0,52,0.00,,,0.00,232,WeatherCatV1.20B785,2013-10-03 20:12:00,
2013-10-03 16:14:00,83.1,63.1,30.02,ESE,102,0.0,2.0,51,0.00,,,0.00,276,WeatherCatV1.20B785,2013-10-03 20:14:00,
2013-10-03 16:15:00,83.1,63.1,30.02,ESE,102,0.0,2.0,51,0.00,,,0.00,276,WeatherCatV1.20B785,2013-10-03 20:15:00,
2013-10-03 16:17:00,83.0,63.0,30.02,WNW,291,0.0,2.0,51,0.00,,,0.00,253,WeatherCatV1.20B785,2013-10-03 20:17:00,
2013-10-03 16:20:00,82.9,63.4,30.02,South,183,0.0,1.0,52,0.00,,,0.00,237,WeatherCatV1.20B785,2013-10-03 20:20:00,
2013-10-03 16:23:00,82.6,62.6,30.02,SE,144,1.0,2.0,51,0.00,,,0.00,165,WeatherCatV1.20B785,2013-10-03 20:23:00,
2013-10-03 16:24:00,82.5,62.5,30.02,East,94,2.0,2.0,51,0.00,,,0.00,156,WeatherCatV1.20B785,2013-10-03 20:24:00,
2013-10-03 16:25:00,82.4,62.4,30.02,ESE,103,2.0,2.0,51,0.00,,,0.00,149,WeatherCatV1.20B785,2013-10-03 20:25:00,
2013-10-03 16:26:00,82.3,62.3,30.02,East,96,0.0,1.0,51,0.00,,,0.00,141,WeatherCatV1.20B785,2013-10-03 20:26:00,
2013-10-03 16:28:00,82.2,62.8,30.02,East,96,0.0,1.0,52,0.00,,,0.00,139,WeatherCatV1.20B785,2013-10-03 20:28:00,
2013-10-03 16:29:00,82.1,62.7,30.02,East,92,1.0,1.0,52,0.00,,,0.00,139,WeatherCatV1.20B785,2013-10-03 20:29:00,
2013-10-03 16:30:00,82.1,62.7,30.02,East,92,0.0,1.0,52,0.00,,,0.00,139,WeatherCatV1.20B785,2013-10-03 20:30:00,
2013-10-03 16:31:00,82.0,63.2,30.02,East,92,0.0,3.0,53,0.00,,,0.00,141,WeatherCatV1.20B785,2013-10-03 20:31:00,
2013-10-03 16:33:00,82.0,63.2,30.02,East,92,0.0,0.0,53,0.00,,,0.00,141,WeatherCatV1.20B785,2013-10-03 20:33:00,
2013-10-03 16:34:00,82.0,63.2,30.02,WSW,241,0.0,2.0,53,0.00,,,0.00,142,WeatherCatV1.20B785,2013-10-03 20:34:00,
2013-10-03 16:35:00,82.0,62.1,30.02,West,275,0.0,1.0,51,0.00,,,0.00,146,WeatherCatV1.20B785,2013-10-03 20:35:00,
2013-10-03 16:36:00,82.0,62.6,30.02,West,272,0.0,0.0,52,0.00,,,0.00,148,WeatherCatV1.20B785,2013-10-03 20:36:00,
2013-10-03 16:37:00,82.0,63.2,30.02,WSW,250,0.0,0.0,53,0.00,,,0.00,151,WeatherCatV1.20B785,2013-10-03 20:37:00,
2013-10-03 16:38:00,82.0,62.6,30.02,WSW,250,0.0,0.0,52,0.00,,,0.00,151,WeatherCatV1.20B785,2013-10-03 20:38:00,
2013-10-03 16:39:00,82.0,62.6,30.02,WSW,250,0.0,1.0,52,0.00,,,0.00,153,WeatherCatV1.20B785,2013-10-03 20:39:00,
2013-10-03 16:40:00,81.9,62.0,30.02,South,190,0.0,1.0,51,0.00,,,0.00,155,WeatherCatV1.20B785,2013-10-03 20:40:00,
2013-10-03 16:42:00,81.9,62.0,30.02,SE,133,0.0,2.0,51,0.00,,,0.00,155,WeatherCatV1.20B785,2013-10-03 20:42:00,
2013-10-03 16:43:00,82.0,62.6,30.02,SE,133,0.0,2.0,52,0.00,,,0.00,155,WeatherCatV1.20B785,2013-10-03 20:43:00,
2013-10-03 16:44:00,82.0,62.6,30.02,NW,313,0.0,1.0,52,0.00,,,0.00,153,WeatherCatV1.20B785,2013-10-03 20:44:00,
2013-10-03 16:45:00,82.0,63.2,30.02,NW,313,0.0,1.0,53,0.00,,,0.00,153,WeatherCatV1.20B785,2013-10-03 20:45:00,
2013-10-03 16:46:00,82.0,63.7,30.02,NNW,327,0.0,1.0,54,0.00,,,0.00,155,WeatherCatV1.20B785,2013-10-03 20:46:00,
2013-10-03 16:47:00,82.0,63.2,30.02,NW,319,0.0,1.0,53,0.00,,,0.00,155,WeatherCatV1.20B785,2013-10-03 20:47:00,
2013-10-03 16:48:00,82.0,62.6,30.02,NW,320,0.0,0.0,52,0.00,,,0.00,153,WeatherCatV1.20B785,2013-10-03 20:48:00,
2013-10-03 16:50:00,82.1,62.7,30.02,NNW,336,0.0,1.0,52,0.00,,,0.00,149,WeatherCatV1.20B785,2013-10-03 20:50:00,
2013-10-03 16:51:00,82.1,62.7,30.02,NNW,336,0.0,1.0,52,0.00,,,0.00,146,WeatherCatV1.20B785,2013-10-03 20:51:00,
2013-10-03 16:52:00,82.1,63.2,30.02,NNW,345,0.0,1.0,53,0.00,,,0.00,141,WeatherCatV1.20B785,2013-10-03 20:52:00,
2013-10-03 16:54:00,82.1,62.7,30.02,SE,139,0.0,2.0,52,0.00,,,0.00,135,WeatherCatV1.20B785,2013-10-03 20:54:00,
2013-10-03 16:55:00,82.1,62.7,30.02,SE,139,0.0,2.0,52,0.00,,,0.00,135,WeatherCatV1.20B785,2013-10-03 20:55:00,
2013-10-03 16:56:00,82.1,62.7,30.02,ESE,113,1.0,2.0,52,0.00,,,0.00,135,WeatherCatV1.20B785,2013-10-03 20:56:00,
2013-10-03 16:57:00,82.1,62.7,30.02,ESE,113,0.0,1.0,52,0.00,,,0.00,130,WeatherCatV1.20B785,2013-10-03 20:57:00,
2013-10-03 17:01:00,82.0,62.1,30.02,SSE,159,0.0,0.0,51,0.00,,,0.00,121,WeatherCatV1.20B785,2013-10-03 21:01:00,
2013-10-03 17:02:00,82.0,62.1,30.02,SSE,152,0.0,1.0,51,0.00,,,0.00,118,WeatherCatV1.20B785,2013-10-03 21:02:00,
2013-10-03 17:06:00,81.8,62.4,30.02,ESE,104,0.0,0.0,52,0.00,,,0.00,109,WeatherCatV1.20B785,2013-10-03 21:06:00,
2013-10-03 17:07:00,81.8,62.4,30.02,ESE,104,0.0,0.0,52,0.00,,,0.00,109,WeatherCatV1.20B785,2013-10-03 21:07:00,
2013-10-03 17:08:00,81.7,62.3,30.02,ESE,104,0.0,1.0,52,0.00,,,0.00,107,WeatherCatV1.20B785,2013-10-03 21:08:00,
2013-10-03 17:12:00,81.7,64.4,30.02,ESE,104,0.0,0.0,56,0.00,,,0.00,98,WeatherCatV1.20B785,2013-10-03 21:12:00,
2013-10-03 17:13:00,81.7,62.9,30.02,ESE,104,0.0,0.0,53,0.00,,,0.00,97,WeatherCatV1.20B785,2013-10-03 21:13:00,
2013-10-03 17:14:00,81.6,62.8,30.02,ESE,104,0.0,0.0,53,0.00,,,0.00,93,WeatherCatV1.20B785,2013-10-03 21:14:00,
2013-10-03 17:17:00,81.6,62.2,30.02,ESE,104,0.0,0.0,52,0.00,,,0.00,90,WeatherCatV1.20B785,2013-10-03 21:17:00,
2013-10-03 17:18:00,81.6,62.8,30.02,ESE,104,0.0,0.0,53,0.00,,,0.00,86,WeatherCatV1.20B785,2013-10-03 21:18:00,
2013-10-03 17:19:00,81.5,62.7,30.02,ESE,104,0.0,0.0,53,0.00,,,0.00,84,WeatherCatV1.20B785,2013-10-03 21:19:00,
2013-10-03 17:22:00,81.5,63.2,30.02,ESE,104,0.0,0.0,54,0.00,,,0.00,81,WeatherCatV1.20B785,2013-10-03 21:22:00,
2013-10-03 17:23:00,81.4,63.1,30.02,ESE,104,0.0,0.0,54,0.00,,,0.00,77,WeatherCatV1.20B785,2013-10-03 21:23:00,
2013-10-03 17:24:00,81.4,62.6,30.02,ESE,104,0.0,0.0,53,0.00,,,0.00,77,WeatherCatV1.20B785,2013-10-03 21:24:00,
2013-10-03 17:25:00,81.3,62.5,30.02,SE,125,0.0,1.0,53,0.00,,,0.00,76,WeatherCatV1.20B785,2013-10-03 21:25:00,
2013-10-03 17:28:00,81.2,63.5,30.02,SE,125,0.0,0.0,55,0.00,,,0.00,72,WeatherCatV1.20B785,2013-10-03 21:28:00,
2013-10-03 17:29:00,81.1,63.4,30.02,SE,129,0.0,1.0,55,0.00,,,0.00,69,WeatherCatV1.20B785,2013-10-03 21:29:00,
2013-10-03 17:30:00,81.1,63.4,30.02,SE,129,0.0,1.0,55,0.00,,,0.00,69,WeatherCatV1.20B785,2013-10-03 21:30:00,
2013-10-03 17:33:00,80.9,63.7,30.02,SE,129,0.0,0.0,56,0.00,,,0.00,63,WeatherCatV1.20B785,2013-10-03 21:33:00,
2013-10-03 17:34:00,80.9,63.7,30.02,SE,129,0.0,0.0,56,0.00,,,0.00,63,WeatherCatV1.20B785,2013-10-03 21:34:00,
2013-10-03 17:35:00,80.8,63.1,30.02,SE,129,0.0,0.0,55,0.00,,,0.00,63,WeatherCatV1.20B785,2013-10-03 21:35:00,
2013-10-03 17:37:00,80.8,63.6,30.02,SE,129,0.0,0.0,56,0.00,,,0.00,60,WeatherCatV1.20B785,2013-10-03 21:37:00,
2013-10-03 17:38:00,80.7,64.0,30.02,SE,129,0.0,0.0,57,0.00,,,0.00,58,WeatherCatV1.20B785,2013-10-03 21:38:00,
2013-10-03 17:39:00,80.7,64.0,30.02,SE,129,0.0,0.0,57,0.00,,,0.00,58,WeatherCatV1.20B785,2013-10-03 21:39:00,
2013-10-03 17:40:00,80.6,63.9,30.02,SE,130,0.0,1.0,57,0.00,,,0.00,56,WeatherCatV1.20B785,2013-10-03 21:40:00,
2013-10-03 17:41:00,80.6,63.9,30.02,SE,130,0.0,1.0,57,0.00,,,0.00,56,WeatherCatV1.20B785,2013-10-03 21:41:00,
2013-10-03 17:42:00,80.5,63.8,30.02,SE,130,0.0,1.0,57,0.00,,,0.00,54,WeatherCatV1.20B785,2013-10-03 21:42:00,
2013-10-03 17:45:00,80.4,64.2,30.02,SE,130,0.0,0.0,58,0.00,,,0.00,53,WeatherCatV1.20B785,2013-10-03 21:45:00,
2013-10-03 17:46:00,80.4,64.2,30.02,SE,130,0.0,0.0,58,0.00,,,0.00,53,WeatherCatV1.20B785,2013-10-03 21:46:00,
2013-10-03 17:47:00,80.4,64.2,30.02,SE,130,0.0,0.0,58,0.00,,,0.00,51,WeatherCatV1.20B785,2013-10-03 21:47:00,
2013-10-03 17:49:00,80.3,64.6,30.02,SE,130,0.0,0.0,59,0.00,,,0.00,49,WeatherCatV1.20B785,2013-10-03 21:49:00,
2013-10-03 17:50:00,80.3,64.6,30.02,SE,130,0.0,0.0,59,0.00,,,0.00,46,WeatherCatV1.20B785,2013-10-03 21:50:00,
2013-10-03 17:51:00,80.2,64.6,30.02,SE,130,0.0,0.0,59,0.00,,,0.00,46,WeatherCatV1.20B785,2013-10-03 21:51:00,
2013-10-03 17:52:00,80.2,64.1,30.02,SE,130,0.0,0.0,58,0.00,,,0.00,46,WeatherCatV1.20B785,2013-10-03 21:52:00,
2013-10-03 17:54:00,80.1,64.0,30.02,SE,130,0.0,0.0,58,0.00,,,0.00,42,WeatherCatV1.20B785,2013-10-03 21:54:00,
2013-10-03 17:55:00,80.1,64.4,30.02,SE,130,0.0,0.0,59,0.00,,,0.00,40,WeatherCatV1.20B785,2013-10-03 21:55:00,
2013-10-03 17:56:00,80.0,64.4,30.02,SE,130,0.0,0.0,59,0.00,,,0.00,40,WeatherCatV1.20B785,2013-10-03 21:56:00,
2013-10-03 17:59:00,79.9,64.3,30.02,SE,130,0.0,0.0,59,0.00,,,0.00,37,WeatherCatV1.20B785,2013-10-03 21:59:00,
2013-10-03 18:01:00,79.9,64.3,30.02,SE,130,0.0,0.0,59,0.00,,,0.00,35,WeatherCatV1.20B785,2013-10-03 22:01:00,
2013-10-03 18:02:00,79.8,64.2,30.02,SE,130,0.0,0.0,59,0.00,,,0.00,33,WeatherCatV1.20B785,2013-10-03 22:02:00,
2013-10-03 18:04:00,79.7,64.1,30.02,SE,130,0.0,0.0,59,0.00,,,0.00,32,WeatherCatV1.20B785,2013-10-03 22:04:00,
2013-10-03 18:05:00,79.7,64.6,30.02,SE,130,0.0,0.0,60,0.00,,,0.00,30,WeatherCatV1.20B785,2013-10-03 22:05:00,
2013-10-03 18:06:00,79.6,64.5,30.02,SE,130,0.0,0.0,60,0.00,,,0.00,30,WeatherCatV1.20B785,2013-10-03 22:06:00,
2013-10-03 18:07:00,79.6,64.5,30.02,SE,130,0.0,0.0,60,0.00,,,0.00,28,WeatherCatV1.20B785,2013-10-03 22:07:00,
2013-10-03 18:08:00,79.6,64.5,30.02,SE,130,0.0,0.0,60,0.00,,,0.00,28,WeatherCatV1.20B785,2013-10-03 22:08:00,
2013-10-03 18:10:00,79.4,64.8,30.02,SE,130,0.0,0.0,61,0.00,,,0.00,26,WeatherCatV1.20B785,2013-10-03 22:10:00,
2013-10-03 18:11:00,79.4,64.8,30.02,SE,130,0.0,0.0,61,0.00,,,0.00,26,WeatherCatV1.20B785,2013-10-03 22:11:00,
2013-10-03 18:12:00,79.3,65.1,30.02,SE,130,0.0,0.0,62,0.00,,,0.00,25,WeatherCatV1.20B785,2013-10-03 22:12:00,
2013-10-03 18:15:00,79.1,64.9,30.02,SE,130,0.0,0.0,62,0.00,,,0.00,23,WeatherCatV1.20B785,2013-10-03 22:15:00,
2013-10-03 18:16:00,79.0,65.3,30.02,SE,130,0.0,0.0,63,0.00,,,0.00,23,WeatherCatV1.20B785,2013-10-03 22:16:00,
2013-10-03 18:17:00,78.9,65.2,30.02,SE,130,0.0,0.0,63,0.00,,,0.00,21,WeatherCatV1.20B785,2013-10-03 22:17:00,
2013-10-03 18:18:00,78.9,65.2,30.02,SE,130,0.0,0.0,63,0.00,,,0.00,21,WeatherCatV1.20B785,2013-10-03 22:18:00,
2013-10-03 18:20:00,78.6,64.5,30.02,SE,130,0.0,0.0,62,0.00,,,0.00,19,WeatherCatV1.20B785,2013-10-03 22:20:00,
2013-10-03 18:21:00,78.5,64.8,30.02,SE,130,0.0,0.0,63,0.00,,,0.00,19,WeatherCatV1.20B785,2013-10-03 22:21:00,
2013-10-03 18:23:00,78.4,64.7,30.02,South,187,0.0,0.0,63,0.00,,,0.00,18,WeatherCatV1.20B785,2013-10-03 22:23:00,
2013-10-03 18:25:00,78.2,65.0,30.02,South,187,0.0,0.0,64,0.00,,,0.00,16,WeatherCatV1.20B785,2013-10-03 22:25:00,
2013-10-03 18:26:00,78.1,64.9,30.02,South,187,0.0,0.0,64,0.00,,,0.00,16,WeatherCatV1.20B785,2013-10-03 22:26:00,
2013-10-03 18:27:00,78.1,65.3,30.02,South,187,0.0,0.0,65,0.00,,,0.00,16,WeatherCatV1.20B785,2013-10-03 22:27:00,
2013-10-03 18:28:00,78.0,64.8,30.02,South,187,0.0,0.0,64,0.00,,,0.00,14,WeatherCatV1.20B785,2013-10-03 22:28:00,
2013-10-03 18:29:00,77.9,64.7,30.02,South,187,0.0,0.0,64,0.00,,,0.00,14,WeatherCatV1.20B785,2013-10-03 22:29:00,
2013-10-03 18:31:00,77.8,65.1,30.02,South,187,0.0,0.0,65,0.00,,,0.00,14,WeatherCatV1.20B785,2013-10-03 22:31:00,
2013-10-03 18:32:00,77.7,64.5,30.02,South,187,0.0,0.0,64,0.00,,,0.00,14,WeatherCatV1.20B785,2013-10-03 22:32:00,
2013-10-03 18:34:00,77.6,64.9,30.02,South,187,0.0,0.0,65,0.00,,,0.00,14,WeatherCatV1.20B785,2013-10-03 22:34:00,
2013-10-03 18:36:00,77.5,64.8,30.03,South,187,0.0,0.0,65,0.00,,,0.00,12,WeatherCatV1.20B785,2013-10-03 22:36:00,
2013-10-03 18:37:00,77.4,65.1,30.03,South,187,0.0,0.0,66,0.00,,,0.00,12,WeatherCatV1.20B785,2013-10-03 22:37:00,
2013-10-03 18:39:00,77.3,65.0,30.03,South,187,0.0,0.0,66,0.00,,,0.00,12,WeatherCatV1.20B785,2013-10-03 22:39:00,
2013-10-03 18:40:00,77.3,65.5,30.03,South,187,0.0,0.0,67,0.00,,,0.00,12,WeatherCatV1.20B785,2013-10-03 22:40:00,
2013-10-03 18:41:00,77.1,65.3,30.03,South,187,0.0,0.0,67,0.00,,,0.00,11,WeatherCatV1.20B785,2013-10-03 22:41:00,
2013-10-03 18:42:00,77.1,65.3,30.03,South,187,0.0,0.0,67,0.00,,,0.00,7,WeatherCatV1.20B785,2013-10-03 22:42:00,
2013-10-03 18:43:00,77.1,65.3,30.03,South,187,0.0,0.0,67,0.00,,,0.00,7,WeatherCatV1.20B785,2013-10-03 22:43:00,
2013-10-03 18:44:00,77.0,65.6,30.03,South,187,0.0,0.0,68,0.00,,,0.00,5,WeatherCatV1.20B785,2013-10-03 22:44:00,
2013-10-03 18:45:00,77.0,65.6,30.03,South,187,0.0,0.0,68,0.00,,,0.00,5,WeatherCatV1.20B785,2013-10-03 22:45:00,
2013-10-03 18:47:00,76.7,65.3,30.03,South,187,0.0,0.0,68,0.00,,,0.00,0,WeatherCatV1.20B785,2013-10-03 22:47:00,
2013-10-03 18:48:00,76.7,65.3,30.03,South,187,0.0,0.0,68,0.00,,,0.00,0,WeatherCatV1.20B785,2013-10-03 22:48:00,
2013-10-03 18:49:00,76.5,65.1,30.03,South,187,0.0,0.0,68,0.00,,,0.00,0,WeatherCatV1.20B785,2013-10-03 22:49:00,
2013-10-03 18:50:00,76.5,65.1,30.03,SSW,206,0.0,0.0,68,0.00,,,0.00,0,WeatherCatV1.20B785,2013-10-03 22:50:00,
2013-10-03 18:53:00,76.2,65.3,30.03,SSW,206,0.0,0.0,69,0.00,,,0.00,0,WeatherCatV1.20B785,2013-10-03 22:53:00,
2013-10-03 18:54:00,76.0,65.1,30.03,SSW,206,0.0,0.0,69,0.00,,,0.00,0,WeatherCatV1.20B785,2013-10-03 22:54:00,
2013-10-03 18:55:00,76.0,65.1,30.03,SSW,206,0.0,0.0,69,0.00,,,0.00,0,WeatherCatV1.20B785,2013-10-03 22:55:00,
2013-10-03 18:58:00,75.7,65.2,30.03,SSW,206,0.0,0.0,70,0.00,,,0.00,0,WeatherCatV1.20B785,2013-10-03 22:58:00,
2013-10-03 18:59:00,75.7,65.2,30.03,SSW,207,0.0,0.0,70,0.00,,,0.00,0,WeatherCatV1.20B785,2013-10-03 22:59:00,
2013-10-03 19:00:00,75.6,65.1,30.03,SSW,207,0.0,0.0,70,0.00,,,0.00,0,WeatherCatV1.20B785,2013-10-03 23:00:00,
2013-10-03 19:03:00,75.2,65.1,30.03,SSW,206,0.0,0.0,71,0.00,,,0.00,0,WeatherCatV1.20B785,2013-10-03 23:03:00,
2013-10-03 19:04:00,75.2,65.1,30.03,SSW,206,0.0,0.0,71,0.00,,,0.00,0,WeatherCatV1.20B785,2013-10-03 23:04:00,
2013-10-03 19:05:00,75.1,65.0,30.03,SSW,206,0.0,0.0,71,0.00,,,0.00,0,WeatherCatV1.20B785,2013-10-03 23:05:00,
2013-10-03 19:06:00,75.1,65.0,30.03,SSW,206,0.0,0.0,71,0.00,,,0.00,0,WeatherCatV1.20B785,2013-10-03 23:06:00,
2013-10-03 19:08:00,74.8,64.8,30.02,SSW,207,0.0,0.0,71,0.00,,,0.00,0,WeatherCatV1.20B785,2013-10-03 23:08:00,
2013-10-03 19:09:00,74.8,65.2,30.03,SSW,206,0.0,0.0,72,0.00,,,0.00,0,WeatherCatV1.20B785,2013-10-03 23:09:00,
2013-10-03 19:10:00,74.8,65.2,30.03,SSW,206,0.0,0.0,72,0.00,,,0.00,0,WeatherCatV1.20B785,2013-10-03 23:10:00,
2013-10-03 19:11:00,74.7,65.1,30.03,SSW,206,0.0,0.0,72,0.00,,,0.00,0,WeatherCatV1.20B785,2013-10-03 23:11:00,
2013-10-03 19:14:00,74.4,64.8,30.02,SSW,206,0.0,0.0,72,0.00,,,0.00,0,WeatherCatV1.20B785,2013-10-03 23:14:00,
2013-10-03 19:15:00,74.4,64.8,30.02,SSW,206,0.0,0.0,72,0.00,,,0.00,0,WeatherCatV1.20B785,2013-10-03 23:15:00,
2013-10-03 19:16:00,74.4,65.2,30.02,SSW,206,0.0,0.0,73,0.00,,,0.00,0,WeatherCatV1.20B785,2013-10-03 23:16:00,
2013-10-03 19:19:00,74.0,64.8,30.02,SSW,206,0.0,0.0,73,0.00,,,0.00,0,WeatherCatV1.20B785,2013-10-03 23:19:00,
2013-10-03 19:20:00,74.0,64.8,30.02,SSW,207,0.0,0.0,73,0.00,,,0.00,0,WeatherCatV1.20B785,2013-10-03 23:20:00,
2013-10-03 19:21:00,74.0,64.8,30.02,SSW,206,0.0,0.0,73,0.00,,,0.00,0,WeatherCatV1.20B785,2013-10-03 23:21:00,
2013-10-03 19:22:00,73.9,65.1,30.02,SSW,206,0.0,0.0,74,0.00,,,0.00,0,WeatherCatV1.20B785,2013-10-03 23:22:00,
2013-10-03 19:25:00,73.6,65.2,30.02,SSW,207,0.0,0.0,75,0.00,,,0.00,0,WeatherCatV1.20B785,2013-10-03 23:25:00,
2013-10-03 19:26:00,73.6,65.2,30.02,WSW,252,0.0,0.0,75,0.00,,,0.00,0,WeatherCatV1.20B785,2013-10-03 23:26:00,
2013-10-03 19:27:00,73.5,65.1,30.02,West,272,0.0,1.0,75,0.00,,,0.00,0,WeatherCatV1.20B785,2013-10-03 23:27:00,
2013-10-03 19:31:00,73.2,64.8,30.02,West,272,0.0,0.0,75,0.00,,,0.00,0,WeatherCatV1.20B785,2013-10-03 23:31:00,
2013-10-03 19:32:00,73.1,65.1,30.02,West,272,0.0,0.0,76,0.00,,,0.00,0,WeatherCatV1.20B785,2013-10-03 23:32:00,
2013-10-03 19:36:00,72.8,64.8,30.02,West,272,0.0,0.0,76,0.00,,,0.00,0,WeatherCatV1.20B785,2013-10-03 23:36:00,
2013-10-03 19:37:00,72.7,65.1,30.02,West,272,0.0,0.0,77,0.00,,,0.00,0,WeatherCatV1.20B785,2013-10-03 23:37:00,
2013-10-03 19:41:00,72.4,64.8,30.02,West,272,0.0,0.0,77,0.00,,,0.00,0,WeatherCatV1.20B785,2013-10-03 23:41:00,
2013-10-03 19:42:00,72.4,64.8,30.02,West,272,0.0,0.0,77,0.00,,,0.00,0,WeatherCatV1.20B785,2013-10-03 23:42:00,
2013-10-03 19:46:00,72.1,64.8,30.02,West,272,0.0,0.0,78,0.00,,,0.00,0,WeatherCatV1.20B785,2013-10-03 23:46:00,
2013-10-03 19:47:00,72.0,64.8,30.02,West,272,0.0,0.0,78,0.00,,,0.00,0,WeatherCatV1.20B785,2013-10-03 23:47:00,
2013-10-03 19:48:00,72.0,64.8,30.02,West,272,0.0,0.0,78,0.00,,,0.00,0,WeatherCatV1.20B785,2013-10-03 23:48:00,
2013-10-03 19:52:00,71.8,64.6,30.02,West,272,0.0,0.0,78,0.00,,,0.00,0,WeatherCatV1.20B785,2013-10-03 23:52:00,
2013-10-03 19:53:00,71.7,64.5,30.02,West,272,0.0,0.0,78,0.00,,,0.00,0,WeatherCatV1.20B785,2013-10-03 23:53:00,
2013-10-03 19:54:00,71.7,64.5,30.02,West,272,0.0,0.0,78,0.00,,,0.00,0,WeatherCatV1.20B785,2013-10-03 23:54:00,
2013-10-03 19:58:00,71.5,64.6,30.02,West,272,0.0,0.0,79,0.00,,,0.00,0,WeatherCatV1.20B785,2013-10-03 23:58:00,
2013-10-03 19:59:00,71.5,64.6,30.02,West,272,0.0,0.0,79,0.00,,,0.00,0,WeatherCatV1.20B785,2013-10-03 23:59:00,
2013-10-03 20:03:00,71.3,64.4,30.02,West,279,0.0,1.0,79,0.00,,,0.00,0,WeatherCatV1.20B785,2013-10-04 00:03:00,
2013-10-03 20:04:00,71.2,64.7,30.02,West,279,0.0,0.0,80,0.00,,,0.00,0,WeatherCatV1.20B785,2013-10-04 00:04:00,
2013-10-03 20:05:00,71.2,64.7,30.02,West,279,0.0,0.0,80,0.00,,,0.00,0,WeatherCatV1.20B785,2013-10-04 00:05:00,
2013-10-03 20:08:00,71.0,64.5,30.03,West,279,0.0,1.0,80,0.00,,,0.00,0,WeatherCatV1.20B785,2013-10-04 00:08:00,
2013-10-03 20:09:00,70.9,64.4,30.03,West,279,0.0,1.0,80,0.00,,,0.00,0,WeatherCatV1.20B785,2013-10-04 00:09:00,
2013-10-03 20:10:00,70.8,64.3,30.03,West,279,0.0,0.0,80,0.00,,,0.00,0,WeatherCatV1.20B785,2013-10-04 00:10:00,
2013-10-03 20:13:00,70.6,64.5,30.03,West,279,0.0,0.0,81,0.00,,,0.00,0,WeatherCatV1.20B785,2013-10-04 00:13:00,
2013-10-03 20:14:00,70.6,64.5,30.03,West,279,0.0,0.0,81,0.00,,,0.00,0,WeatherCatV1.20B785,2013-10-04 00:14:00,
2013-10-03 20:15:00,70.6,64.5,30.03,West,279,0.0,0.0,81,0.00,,,0.00,0,WeatherCatV1.20B785,2013-10-04 00:15:00,
2013-10-03 20:16:00,70.6,64.5,30.03,West,279,0.0,1.0,81,0.00,,,0.00,0,WeatherCatV1.20B785,2013-10-04 00:16:00,
2013-10-03 20:19:00,70.4,64.3,30.03,West,279,0.0,0.0,81,0.00,,,0.00,0,WeatherCatV1.20B785,2013-10-04 00:19:00,
2013-10-03 20:20:00,70.4,64.3,30.03,West,279,0.0,0.0,81,0.00,,,0.00,0,WeatherCatV1.20B785,2013-10-04 00:20:00,
2013-10-03 20:21:00,70.3,64.2,30.03,West,279,0.0,0.0,81,0.00,,,0.00,0,WeatherCatV1.20B785,2013-10-04 00:21:00,
2013-10-03 20:25:00,70.2,64.4,30.03,West,279,0.0,1.0,82,0.00,,,0.00,0,WeatherCatV1.20B785,2013-10-04 00:25:00,
2013-10-03 20:26:00,70.1,64.3,30.03,West,279,0.0,1.0,82,0.00,,,0.00,0,WeatherCatV1.20B785,2013-10-04 00:26:00,
2013-10-03 20:27:00,70.1,64.3,30.03,West,279,0.0,0.0,82,0.00,,,0.00,0,WeatherCatV1.20B785,2013-10-04 00:27:00,
2013-10-03 20:30:00,69.9,64.1,30.03,West,279,0.0,0.0,82,0.00,,,0.00,0,WeatherCatV1.20B785,2013-10-04 00:30:00,
2013-10-03 20:31:00,69.9,64.1,30.03,West,279,0.0,0.0,82,0.00,,,0.00,0,WeatherCatV1.20B785,2013-10-04 00:31:00,
2013-10-03 20:32:00,69.8,64.1,30.03,West,279,0.0,0.0,82,0.00,,,0.00,0,WeatherCatV1.20B785,2013-10-04 00:32:00,
2013-10-03 20:35:00,69.6,64.2,30.03,West,279,0.0,0.0,83,0.00,,,0.00,0,WeatherCatV1.20B785,2013-10-04 00:35:00,
2013-10-03 20:36:00,69.6,64.2,30.03,West,279,0.0,0.0,83,0.00,,,0.00,0,WeatherCatV1.20B785,2013-10-04 00:36:00,
2013-10-03 20:37:00,69.5,64.1,30.03,West,279,0.0,1.0,83,0.00,,,0.00,0,WeatherCatV1.20B785,2013-10-04 00:37:00,
2013-10-03 20:38:00,69.4,64.0,30.03,West,279,0.0,1.0,83,0.00,,,0.00,0,WeatherCatV1.20B785,2013-10-04 00:38:00,
2013-10-03 20:41:00,69.2,63.8,30.03,West,279,0.0,0.0,83,0.00,,,0.00,0,WeatherCatV1.20B785,2013-10-04 00:41:00,
2013-10-03 20:42:00,69.1,63.7,30.03,West,279,0.0,1.0,83,0.00,,,0.00,0,WeatherCatV1.20B785,2013-10-04 00:42:00,
2013-10-03 20:43:00,69.0,63.6,30.03,West,279,0.0,1.0,83,0.00,,,0.00,0,WeatherCatV1.20B785,2013-10-04 00:43:00,
2013-10-03 20:44:00,69.0,64.0,30.03,West,279,0.0,0.0,84,0.00,,,0.00,0,WeatherCatV1.20B785,2013-10-04 00:44:00,
2013-10-03 20:46:00,68.9,63.5,30.03,West,279,0.0,0.0,83,0.00,,,0.00,0,WeatherCatV1.20B785,2013-10-04 00:46:00,
2013-10-03 20:47:00,68.8,63.8,30.04,West,279,0.0,0.0,84,0.00,,,0.00,0,WeatherCatV1.20B785,2013-10-04 00:47:00,
2013-10-03 20:48:00,68.8,63.8,30.03,West,279,0.0,0.0,84,0.00,,,0.00,0,WeatherCatV1.20B785,2013-10-04 00:48:00,
2013-10-03 20:49:00,68.7,63.7,30.04,West,279,0.0,0.0,84,0.00,,,0.00,0,WeatherCatV1.20B785,2013-10-04 00:49:00,
2013-10-03 20:51:00,68.6,63.6,30.04,West,279,0.0,1.0,84,0.00,,,0.00,0,WeatherCatV1.20B785,2013-10-04 00:51:00,
2013-10-03 20:52:00,68.6,63.6,30.04,West,279,0.0,1.0,84,0.00,,,0.00,0,WeatherCatV1.20B785,2013-10-04 00:52:00,
2013-10-03 20:53:00,68.5,63.5,30.04,West,279,1.0,1.0,84,0.00,,,0.00,0,WeatherCatV1.20B785,2013-10-04 00:53:00,
2013-10-03 20:54:00,68.5,63.5,30.04,West,279,0.0,1.0,84,0.00,,,0.00,0,WeatherCatV1.20B785,2013-10-04 00:54:00,
2013-10-03 20:55:00,68.5,63.5,30.04,West,279,1.0,1.0,84,0.00,,,0.00,0,WeatherCatV1.20B785,2013-10-04 00:55:00,
2013-10-03 20:57:00,68.4,63.7,30.04,West,279,0.0,1.0,85,0.00,,,0.00,0,WeatherCatV1.20B785,2013-10-04 00:57:00,
2013-10-03 20:59:00,68.4,63.7,30.04,West,279,0.0,0.0,85,0.00,,,0.00,0,WeatherCatV1.20B785,2013-10-04 00:59:00,
2013-10-03 21:02:00,68.3,63.3,30.04,West,279,0.0,1.0,84,0.00,,,0.00,0,WeatherCatV1.20B785,2013-10-04 01:02:00,
2013-10-03 21:03:00,68.3,63.3,30.04,West,279,0.0,1.0,84,0.00,,,0.00,0,WeatherCatV1.20B785,2013-10-04 01:03:00,
2013-10-03 21:04:00,68.3,63.6,30.04,West,279,0.0,1.0,85,0.00,,,0.00,0,WeatherCatV1.20B785,2013-10-04 01:04:00,
2013-10-03 21:05:00,68.2,63.5,30.04,West,279,0.0,1.0,85,0.00,,,0.00,0,WeatherCatV1.20B785,2013-10-04 01:05:00,
2013-10-03 21:07:00,68.2,63.5,30.04,West,279,0.0,1.0,85,0.00,,,0.00,0,WeatherCatV1.20B785,2013-10-04 01:07:00,
2013-10-03 21:08:00,68.2,63.5,30.04,West,279,0.0,1.0,85,0.00,,,0.00,0,WeatherCatV1.20B785,2013-10-04 01:08:00,
2013-10-03 21:10:00,68.1,63.4,30.04,West,279,0.0,0.0,85,0.00,,,0.00,0,WeatherCatV1.20B785,2013-10-04 01:10:00,
2013-10-03 21:12:00,68.1,63.4,30.04,West,279,0.0,0.0,85,0.00,,,0.00,0,WeatherCatV1.20B785,2013-10-04 01:12:00,
2013-10-03 21:13:00,68.1,63.4,30.05,West,279,0.0,0.0,85,0.00,,,0.00,0,WeatherCatV1.20B785,2013-10-04 01:13:00,
2013-10-03 21:14:00,68.1,63.4,30.05,West,279,0.0,0.0,85,0.00,,,0.00,0,WeatherCatV1.20B785,2013-10-04 01:14:00,
2013-10-03 21:16:00,68.1,63.4,30.05,West,279,0.0,0.0,85,0.00,,,0.00,0,WeatherCatV1.20B785,2013-10-04 01:16:00,
2013-10-03 21:17:00,68.0,63.3,30.05,West,279,0.0,0.0,85,0.00,,,0.00,0,WeatherCatV1.20B785,2013-10-04 01:17:00,
2013-10-03 21:18:00,68.0,63.3,30.05,West,279,0.0,0.0,85,0.00,,,0.00,0,WeatherCatV1.20B785,2013-10-04 01:18:00,
2013-10-03 21:19:00,68.0,63.3,30.05,West,279,0.0,0.0,85,0.00,,,0.00,0,WeatherCatV1.20B785,2013-10-04 01:19:00,
2013-10-03 21:21:00,68.0,63.3,30.05,West,279,0.0,0.0,85,0.00,,,0.00,0,WeatherCatV1.20B785,2013-10-04 01:21:00,
2013-10-03 21:22:00,67.9,63.2,30.05,West,279,0.0,0.0,85,0.00,,,0.00,0,WeatherCatV1.20B785,2013-10-04 01:22:00,
2013-10-03 21:23:00,67.9,63.2,30.05,West,279,0.0,0.0,85,0.00,,,0.00,0,WeatherCatV1.20B785,2013-10-04 01:23:00,
2013-10-03 21:24:00,67.9,63.2,30.05,West,279,0.0,0.0,85,0.00,,,0.00,0,WeatherCatV1.20B785,2013-10-04 01:24:00,
2013-10-03 21:27:00,67.9,63.2,30.05,West,279,0.0,0.0,85,0.00,,,0.00,0,WeatherCatV1.20B785,2013-10-04 01:27:00,
2013-10-03 21:28:00,67.8,63.1,30.05,West,279,0.0,0.0,85,0.00,,,0.00,0,WeatherCatV1.20B785,2013-10-04 01:28:00,
2013-10-03 21:29:00,67.8,63.1,30.05,West,279,0.0,0.0,85,0.00,,,0.00,0,WeatherCatV1.20B785,2013-10-04 01:29:00,
2013-10-03 21:30:00,67.8,63.1,30.05,West,279,0.0,0.0,85,0.00,,,0.00,0,WeatherCatV1.20B785,2013-10-04 01:30:00,
2013-10-03 21:32:00,67.7,63.0,30.05,West,279,0.0,0.0,85,0.00,,,0.00,0,WeatherCatV1.20B785,2013-10-04 01:32:00,
2013-10-03 21:33:00,67.6,62.9,30.05,West,279,0.0,0.0,85,0.00,,,0.00,0,WeatherCatV1.20B785,2013-10-04 01:33:00,
2013-10-03 21:34:00,67.6,62.9,30.05,West,279,0.0,0.0,85,0.00,,,0.00,0,WeatherCatV1.20B785,2013-10-04 01:34:00,
2013-10-03 21:35:00,67.6,62.9,30.05,West,279,0.0,0.0,85,0.00,,,0.00,0,WeatherCatV1.20B785,2013-10-04 01:35:00,
2013-10-03 21:37:00,67.4,62.7,30.05,West,279,0.0,0.0,85,0.00,,,0.00,0,WeatherCatV1.20B785,2013-10-04 01:37:00,
2013-10-03 21:39:00,67.4,62.7,30.05,West,279,0.0,0.0,85,0.00,,,0.00,0,WeatherCatV1.20B785,2013-10-04 01:39:00,
2013-10-03 21:40:00,67.3,62.6,30.05,West,279,0.0,0.0,85,0.00,,,0.00,0,WeatherCatV1.20B785,2013-10-04 01:40:00,
2013-10-03 21:41:00,67.2,62.5,30.05,West,279,0.0,0.0,85,0.00,,,0.00,0,WeatherCatV1.20B785,2013-10-04 01:41:00,
2013-10-03 21:43:00,67.1,62.4,30.05,West,279,0.0,0.0,85,0.00,,,0.00,0,WeatherCatV1.20B785,2013-10-04 01:43:00,
2013-10-03 21:46:00,67.0,62.7,30.05,West,279,0.0,0.0,86,0.00,,,0.00,0,WeatherCatV1.20B785,2013-10-04 01:46:00,
2013-10-03 21:48:00,66.9,62.6,30.06,West,279,0.0,0.0,86,0.00,,,0.00,0,WeatherCatV1.20B785,2013-10-04 01:48:00,
2013-10-03 21:51:00,66.7,62.4,30.06,West,279,0.0,0.0,86,0.00,,,0.00,0,WeatherCatV1.20B785,2013-10-04 01:51:00,
2013-10-03 21:52:00,66.7,62.4,30.06,West,279,0.0,0.0,86,0.00,,,0.00,0,WeatherCatV1.20B785,2013-10-04 01:52:00,
2013-10-03 21:53:00,66.6,62.3,30.06,West,279,0.0,0.0,86,0.00,,,0.00,0,WeatherCatV1.20B785,2013-10-04 01:53:00,
2013-10-03 21:56:00,66.4,62.1,30.06,West,279,0.0,0.0,86,0.00,,,0.00,0,WeatherCatV1.20B785,2013-10-04 01:56:00,
2013-10-03 21:57:00,66.3,62.0,30.06,West,279,0.0,0.0,86,0.00,,,0.00,0,WeatherCatV1.20B785,2013-10-04 01:57:00,
2013-10-03 21:58:00,66.3,62.0,30.06,West,279,0.0,0.0,86,0.00,,,0.00,0,WeatherCatV1.20B785,2013-10-04 01:58:00,
2013-10-03 21:59:00,66.2,62.2,30.06,West,279,0.0,1.0,87,0.00,,,0.00,0,WeatherCatV1.20B785,2013-10-04 01:59:00,
2013-10-03 22:02:00,66.0,62.0,30.06,West,279,0.0,0.0,87,0.00,,,0.00,0,WeatherCatV1.20B785,2013-10-04 02:02:00,
2013-10-03 22:03:00,65.9,61.9,30.06,West,279,0.0,0.0,87,0.00,,,0.00,0,WeatherCatV1.20B785,2013-10-04 02:03:00,
2013-10-03 22:04:00,65.9,61.9,30.06,West,279,0.0,1.0,87,0.00,,,0.00,0,WeatherCatV1.20B785,2013-10-04 02:04:00,
2013-10-03 22:07:00,65.7,61.7,30.06,West,279,0.0,0.0,87,0.00,,,0.00,0,WeatherCatV1.20B785,2013-10-04 02:07:00,
2013-10-03 22:08:00,65.6,61.6,30.06,West,279,0.0,0.0,87,0.00,,,0.00,0,WeatherCatV1.20B785,2013-10-04 02:08:00,
2013-10-03 22:10:00,65.5,61.5,30.06,West,279,0.0,0.0,87,0.00,,,0.00,0,WeatherCatV1.20B785,2013-10-04 02:10:00,
2013-10-03 22:12:00,65.4,61.4,30.06,West,279,0.0,0.0,87,0.00,,,0.00,0,WeatherCatV1.20B785,2013-10-04 02:12:00,
2013-10-03 22:13:00,65.3,61.3,30.06,West,279,0.0,0.0,87,0.00,,,0.00,0,WeatherCatV1.20B785,2013-10-04 02:13:00,
2013-10-03 22:15:00,65.2,61.5,30.06,West,279,0.0,0.0,88,0.00,,,0.00,0,WeatherCatV1.20B785,2013-10-04 02:15:00,
2013-10-03 22:17:00,65.0,61.3,30.06,West,279,0.0,0.0,88,0.00,,,0.00,0,WeatherCatV1.20B785,2013-10-04 02:17:00,
2013-10-03 22:18:00,65.0,61.3,30.06,West,279,0.0,0.0,88,0.00,,,0.00,0,WeatherCatV1.20B785,2013-10-04 02:18:00,
2013-10-03 22:22:00,64.8,61.2,30.06,West,279,0.0,0.0,88,0.00,,,0.00,0,WeatherCatV1.20B785,2013-10-04 02:22:00,
2013-10-03 22:23:00,64.8,61.2,30.06,West,279,0.0,0.0,88,0.00,,,0.00,0,WeatherCatV1.20B785,2013-10-04 02:23:00,
2013-10-03 22:24:00,64.7,61.1,30.06,West,279,0.0,0.0,88,0.00,,,0.00,0,WeatherCatV1.20B785,2013-10-04 02:24:00,
2013-10-03 22:27:00,64.6,61.0,30.06,West,279,0.0,0.0,88,0.00,,,0.00,0,WeatherCatV1.20B785,2013-10-04 02:27:00,
2013-10-03 22:28:00,64.5,60.9,30.06,West,279,0.0,0.0,88,0.00,,,0.00,0,WeatherCatV1.20B785,2013-10-04 02:28:00,
2013-10-03 22:29:00,64.5,60.9,30.06,West,279,0.0,0.0,88,0.00,,,0.00,0,WeatherCatV1.20B785,2013-10-04 02:29:00,
2013-10-03 22:31:00,64.4,60.8,30.06,West,279,0.0,0.0,88,0.00,,,0.00,0,WeatherCatV1.20B785,2013-10-04 02:31:00,
2013-10-03 22:32:00,64.4,60.8,30.05,West,279,0.0,0.0,88,0.00,,,0.00,0,WeatherCatV1.20B785,2013-10-04 02:32:00,
2013-10-03 22:33:00,64.3,60.7,30.05,West,279,0.0,0.0,88,0.00,,,0.00,0,WeatherCatV1.20B785,2013-10-04 02:33:00,
2013-10-03 22:34:00,64.3,60.7,30.05,West,279,0.0,0.0,88,0.00,,,0.00,0,WeatherCatV1.20B785,2013-10-04 02:34:00,
2013-10-03 22:38:00,64.2,60.6,30.06,West,279,0.0,0.0,88,0.00,,,0.00,0,WeatherCatV1.20B785,2013-10-04 02:38:00,
2013-10-03 22:39:00,64.1,60.5,30.06,West,279,0.0,0.0,88,0.00,,,0.00,0,WeatherCatV1.20B785,2013-10-04 02:39:00,
2013-10-03 22:40:00,64.1,60.5,30.06,West,279,0.0,0.0,88,0.00,,,0.00,0,WeatherCatV1.20B785,2013-10-04 02:40:00,
2013-10-03 22:43:00,63.9,60.3,30.05,West,279,0.0,0.0,88,0.00,,,0.00,0,WeatherCatV1.20B785,2013-10-04 02:43:00,
2013-10-03 22:44:00,63.9,60.3,30.05,West,279,0.0,0.0,88,0.00,,,0.00,0,WeatherCatV1.20B785,2013-10-04 02:44:00,
2013-10-03 22:45:00,63.8,60.2,30.05,West,279,0.0,0.0,88,0.00,,,0.00,0,WeatherCatV1.20B785,2013-10-04 02:45:00,
2013-10-03 22:48:00,63.7,60.1,30.05,West,279,0.0,0.0,88,0.00,,,0.00,0,WeatherCatV1.20B785,2013-10-04 02:48:00,
2013-10-03 22:50:00,63.7,60.1,30.05,West,279,0.0,0.0,88,0.00,,,0.00,0,WeatherCatV1.20B785,2013-10-04 02:50:00,
2013-10-03 22:53:00,63.6,60.0,30.05,West,279,0.0,1.0,88,0.00,,,0.00,0,WeatherCatV1.20B785,2013-10-04 02:53:00,
2013-10-03 22:54:00,63.6,60.0,30.05,West,279,0.0,1.0,88,0.00,,,0.00,0,WeatherCatV1.20B785,2013-10-04 02:54:00,
2013-10-03 22:55:00,63.6,60.0,30.05,West,279,0.0,0.0,88,0.00,,,0.00,0,WeatherCatV1.20B785,2013-10-04 02:55:00,
2013-10-03 22:56:00,63.6,60.0,30.05,West,279,0.0,0.0,88,0.00,,,0.00,0,WeatherCatV1.20B785,2013-10-04 02:56:00,
2013-10-03 22:59:00,63.5,59.9,30.05,West,279,0.0,0.0,88,0.00,,,0.00,0,WeatherCatV1.20B785,2013-10-04 02:59:00,
2013-10-03 23:00:00,63.5,59.9,30.05,West,279,0.0,0.0,88,0.00,,,0.00,0,WeatherCatV1.20B785,2013-10-04 03:00:00,
2013-10-03 23:01:00,63.5,59.9,30.05,West,279,0.0,0.0,88,0.00,,,0.00,0,WeatherCatV1.20B785,2013-10-04 03:01:00,
2013-10-03 23:04:00,63.3,59.7,30.05,West,279,0.0,0.0,88,0.00,,,0.00,0,WeatherCatV1.20B785,2013-10-04 03:04:00,
2013-10-03 23:05:00,63.2,59.6,30.05,West,279,0.0,0.0,88,0.00,,,0.00,0,WeatherCatV1.20B785,2013-10-04 03:05:00,
2013-10-03 23:06:00,63.2,59.6,30.05,West,279,0.0,0.0,88,0.00,,,0.00,0,WeatherCatV1.20B785,2013-10-04 03:06:00,
2013-10-03 23:11:00,63.0,59.4,30.05,West,279,0.0,0.0,88,0.00,,,0.00,0,WeatherCatV1.20B785,2013-10-04 03:11:00,
2013-10-03 23:16:00,62.8,59.2,30.05,West,279,0.0,0.0,88,0.00,,,0.00,0,WeatherCatV1.20B785,2013-10-04 03:16:00,
2013-10-03 23:17:00,62.8,59.2,30.05,West,279,0.0,0.0,88,0.00,,,0.00,0,WeatherCatV1.20B785,2013-10-04 03:17:00,
2013-10-03 23:18:00,62.7,59.1,30.05,West,279,0.0,0.0,88,0.00,,,0.00,0,WeatherCatV1.20B785,2013-10-04 03:18:00,
2013-10-03 23:21:00,62.7,59.1,30.05,West,279,0.0,0.0,88,0.00,,,0.00,0,WeatherCatV1.20B785,2013-10-04 03:21:00,
2013-10-03 23:22:00,62.6,59.0,30.05,West,279,0.0,0.0,88,0.00,,,0.00,0,WeatherCatV1.20B785,2013-10-04 03:22:00,
2013-10-03 23:23:00,62.6,59.0,30.05,West,279,0.0,0.0,88,0.00,,,0.00,0,WeatherCatV1.20B785,2013-10-04 03:23:00,
2013-10-03 23:27:00,62.6,59.0,30.05,West,279,0.0,0.0,88,0.00,,,0.00,0,WeatherCatV1.20B785,2013-10-04 03:27:00,
2013-10-03 23:28:00,62.6,59.0,30.05,West,279,0.0,0.0,88,0.00,,,0.00,0,WeatherCatV1.20B785,2013-10-04 03:28:00,
2013-10-03 23:30:00,62.5,58.9,30.05,West,279,0.0,0.0,88,0.00,,,0.00,0,WeatherCatV1.20B785,2013-10-04 03:30:00,
2013-10-03 23:32:00,62.3,58.7,30.05,West,279,0.0,0.0,88,0.00,,,0.00,0,WeatherCatV1.20B785,2013-10-04 03:32:00,
2013-10-03 23:33:00,62.3,58.7,30.05,West,279,0.0,0.0,88,0.00,,,0.00,0,WeatherCatV1.20B785,2013-10-04 03:33:00,
2013-10-03 23:35:00,62.2,58.6,30.05,West,279,0.0,0.0,88,0.00,,,0.00,0,WeatherCatV1.20B785,2013-10-04 03:35:00,
2013-10-03 23:37:00,62.1,58.5,30.05,West,279,0.0,0.0,88,0.00,,,0.00,0,WeatherCatV1.20B785,2013-10-04 03:37:00,
2013-10-03 23:38:00,62.1,58.5,30.05,West,279,0.0,0.0,88,0.00,,,0.00,0,WeatherCatV1.20B785,2013-10-04 03:38:00,
2013-10-03 23:40:00,62.0,58.4,30.05,West,279,0.0,0.0,88,0.00,,,0.00,0,WeatherCatV1.20B785,2013-10-04 03:40:00,
2013-10-03 23:42:00,61.9,58.3,30.05,West,279,0.0,0.0,88,0.00,,,0.00,0,WeatherCatV1.20B785,2013-10-04 03:42:00,
2013-10-03 23:43:00,61.9,58.3,30.05,West,279,0.0,0.0,88,0.00,,,0.00,0,WeatherCatV1.20B785,2013-10-04 03:43:00,
2013-10-03 23:44:00,61.9,58.3,30.05,West,279,0.0,0.0,88,0.00,,,0.00,0,WeatherCatV1.20B785,2013-10-04 03:44:00,
2013-10-03 23:46:00,61.8,58.2,30.05,West,279,0.0,0.0,88,0.00,,,0.00,0,WeatherCatV1.20B785,2013-10-04 03:46:00,
2013-10-03 23:47:00,61.8,58.2,30.05,West,279,0.0,0.0,88,0.00,,,0.00,0,WeatherCatV1.20B785,2013-10-04 03:47:00,
2013-10-03 23:48:00,61.7,58.1,30.05,West,279,0.0,0.0,88,0.00,,,0.00,0,WeatherCatV1.20B785,2013-10-04 03:48:00,
2013-10-03 23:49:00,61.7,58.1,30.05,West,279,0.0,0.0,88,0.00,,,0.00,0,WeatherCatV1.20B785,2013-10-04 03:49:00,
2013-10-03 23:50:00,61.7,58.1,30.05,West,279,0.0,0.0,88,0.00,,,0.00,0,WeatherCatV1.20B785,2013-10-04 03:50:00,
2013-10-03 23:51:00,61.7,58.1,30.04,West,279,0.0,0.0,88,0.00,,,0.00,0,WeatherCatV1.20B785,2013-10-04 03:51:00,
2013-10-03 23:53:00,61.6,58.0,30.05,West,279,0.0,0.0,88,0.00,,,0.00,0,WeatherCatV1.20B785,2013-10-04 03:53:00,
2013-10-03 23:54:00,61.6,58.0,30.04,West,279,0.0,0.0,88,0.00,,,0.00,0,WeatherCatV1.20B785,2013-10-04 03:54:00,
2013-10-03 23:55:00,61.6,58.0,30.05,West,279,0.0,0.0,88,0.00,,,0.00,0,WeatherCatV1.20B785,2013-10-04 03:55:00,
2013-10-03 23:59:00,61.4,57.8,30.04,West,279,0.0,0.0,88,0.00,,,0.00,0,WeatherCatV1.20B785,2013-10-04 03:59:00,